GFSNGP_sfc_thetae_000.txt.gz
Theta_e
286 288 286 284 283 283 281 283 280 282 283 281 275 277 278 281 281 281 281 283 285 286 287 288 288 288 288 288 287 287 286 286 286 286 284 285 285 285 282 282 282 282 281 280
277 281 280 279 281 281 282 281 282 282 279 277 278 280 279 280 280 279 281 284 286 285 288 286 286 286 286 287 287 286 285 285 286 286 285 283 284 284 281 281 281 281 280 280
273 278 277 272 277 279 280 282 278 275 273 275 275 277 277 279 281 279 280 282 285 284 284 284 285 287 285 286 286 285 284 285 284 283 283 284 282 281 281 280 281 280 280 279
273 270 266 275 278 279 277 276 277 275 273 275 276 277 279 282 279 279 281 283 283 282 281 282 283 284 284 286 284 284 283 283 283 282 281 281 279 280 279 279 279 279 279 279
267 262 271 275 275 274 274 274 276 276 278 278 278 277 275 279 280 280 280 283 281 280 280 281 281 282 283 280 282 283 283 283 282 281 279 279 277 277 278 279 279 280 280 279
265 264 258 272 276 278 277 267 272 275 275 276 275 269 272 278 279 280 282 280 278 277 278 278 279 281 278 278 279 279 281 282 281 279 277 276 275 274 276 278 278 278 278 278
261 259 263 271 274 276 262 265 270 274 276 275 273 274 277 279 277 278 278 276 276 276 275 276 279 277 275 276 276 277 277 277 281 280 277 276 277 273 274 275 274 273 274 275
254 254 257 275 273 268 271 274 274 275 278 277 277 278 278 277 276 276 275 275 275 274 274 275 275 274 273 273 274 274 275 275 277 279 278 276 275 274 274 274 273 271 271 270
265 264 275 277 275 279 277 274 276 277 279 278 277 277 276 274 275 275 274 274 274 272 272 273 273 272 270 271 271 271 271 272 273 275 279 276 275 274 273 273 272 269 270 270
271 274 275 277 279 278 278 278 278 278 278 277 276 275 273 273 273 273 273 272 272 270 269 269 271 270 269 269 268 267 267 267 269 270 273 276 274 275 273 272 272 272 271 271
271 275 276 277 278 279 279 278 276 276 275 274 273 272 272 271 271 271 271 270 270 269 268 267 268 267 267 266 265 264 264 265 265 268 269 274 274 274 273 275 275 273 273 273
269 276 275 276 279 277 276 275 273 272 271 272 272 270 270 269 269 269 268 268 267 266 265 265 264 263 263 263 262 261 261 262 263 265 267 270 273 273 277 278 278 279 279 276
275 279 278 278 275 272 271 270 271 269 269 268 268 268 267 266 266 266 265 264 263 262 262 261 260 260 261 260 260 259 259 260 261 263 265 268 272 271 270 273 279 280 280 280
274 272 275 273 271 269 269 268 267 266 266 266 266 265 264 263 263 261 261 261 260 260 259 258 258 258 259 259 259 259 259 260 260 262 264 266 269 271 270 270 269 273 279 279
267 268 267 267 267 266 266 265 262 263 263 263 263 262 261 259 259 259 259 259 259 258 258 258 258 258 259 259 258 258 258 259 261 262 264 266 268 271 270 270 270 271 273 277
263 264 263 262 262 263 261 261 259 260 261 260 259 259 258 258 257 257 258 259 258 257 257 257 257 258 259 259 259 259 259 259 261 262 262 264 266 269 268 267 269 270 271 273
259 260 257 257 258 259 258 259 259 259 258 257 256 257 256 256 257 257 257 257 256 256 256 257 257 259 259 259 258 259 259 259 260 261 263 264 267 267 267 267 268 269 270 273
257 258 258 257 257 257 257 257 257 256 255 256 256 256 256 256 256 256 255 255 255 255 257 258 258 259 260 260 260 260 260 260 260 260 263 265 267 267 267 267 267 268 270 272
255 255 256 257 257 256 255 254 255 255 255 255 255 255 257 257 256 255 255 255 254 255 256 258 262 260 259 260 262 262 262 263 264 265 265 266 266 266 266 267 267 268 269 271
253 254 254 254 254 253 253 254 253 253 253 254 256 256 256 256 256 255 255 255 255 256 257 258 260 259 260 260 262 261 261 262 263 263 263 263 263 263 264 265 265 267 263 262
250 251 251 252 252 252 252 252 252 251 253 255 256 256 256 256 256 255 254 254 256 257 257 258 259 260 260 260 260 260 260 260 260 261 262 262 262 262 263 262 261 260 260 259
248 248 249 250 250 250 250 250 250 253 255 256 256 257 256 255 255 255 256 255 256 257 257 257 259 259 259 260 259 259 259 259 259 260 260 261 261 260 259 259 259 259 259 259
246 246 249 248 248 250 250 249 252 254 255 256 256 256 255 255 255 254 253 256 256 257 256 257 259 259 260 258 257 257 258 258 258 258 258 259 258 258 258 258 258 258 258 258
242 244 245 246 246 245 247 250 254 256 256 257 257 257 255 254 255 256 256 256 256 256 256 257 258 259 257 256 256 256 256 256 257 257 258 258 258 258 257 257 257 257 257 257
244 244 241 245 247 251 254 256 256 256 256 257 257 257 257 257 255 255 255 255 257 255 255 257 259 257 254 254 254 254 255 255 255 255 255 255 256 256 256 256 256 256 255 255
244 247 250 253 255 255 256 256 255 256 256 255 256 256 256 257 257 256 255 255 255 255 254 254 255 254 254 255 254 254 254 254 254 254 254 255 255 255 255 254 254 254 254 254
250 254 254 254 254 255 255 256 256 255 256 256 255 256 256 256 256 256 255 255 254 254 254 254 254 254 254 254 254 254 254 254 254 254 254 254 254 254 254 254 254 254 254 254

GFSNGP_sfc_thetae_003.txt.gz
Theta_e
285 286 284 282 281 280 278 280 277 280 279 284 274 276 278 279 282 280 279 281 282 285 283 284 284 284 286 286 287 287 286 285 285 286 286 286 286 286 287 285 285 284 284 283
274 280 280 278 279 280 279 279 280 280 280 276 278 278 277 277 281 279 278 280 282 285 282 283 282 283 284 284 285 285 285 284 285 285 284 284 285 284 284 285 284 284 283 283
274 277 276 272 275 278 278 280 278 275 273 273 274 276 276 276 281 278 278 279 280 283 281 281 281 281 281 282 284 282 283 284 284 284 283 282 283 283 282 283 284 283 283 282
273 268 266 275 276 279 277 275 274 272 271 274 276 279 279 280 280 277 279 280 280 282 280 279 280 280 280 282 280 280 281 281 282 280 280 281 281 281 281 282 282 282 282 282
267 264 271 274 275 274 274 272 275 273 274 276 278 277 276 278 278 278 279 280 281 280 279 278 278 278 278 279 278 278 278 278 278 278 277 279 279 280 280 279 280 281 282 282
260 261 256 270 276 278 275 265 272 271 271 272 275 269 273 277 278 279 279 280 279 277 276 276 276 277 277 276 274 275 276 276 276 275 276 279 279 279 279 278 279 280 279 280
269 268 265 270 273 276 262 265 271 272 274 274 273 276 278 278 278 278 278 278 277 275 274 274 275 274 274 273 272 274 274 273 272 273 273 275 276 278 278 277 277 277 277 278
253 256 260 273 273 268 271 275 274 275 276 276 277 279 279 278 278 277 276 276 276 274 274 274 274 273 272 271 273 271 270 269 269 269 270 272 273 275 277 276 276 275 275 275
265 264 274 276 275 278 279 276 277 276 277 277 278 278 278 276 275 275 275 275 274 272 271 272 272 271 269 270 270 268 266 265 265 266 267 268 269 271 275 276 274 275 274 274
271 274 275 277 279 279 278 277 278 278 277 277 277 276 274 273 274 273 273 272 271 269 268 268 269 269 267 267 266 264 262 262 263 263 264 265 267 270 272 275 275 274 274 273
271 275 276 277 278 279 279 278 277 275 275 274 273 272 272 271 271 271 270 269 268 267 266 265 265 264 264 263 262 260 260 260 260 261 261 263 265 267 270 275 276 275 275 275
270 276 275 276 279 277 277 276 273 272 271 272 272 270 270 268 268 268 267 266 264 263 262 261 261 260 260 260 259 258 258 258 258 259 260 261 262 264 270 274 278 280 281 279
276 279 278 279 273 272 272 270 270 269 269 267 268 267 266 265 265 264 263 262 260 260 259 259 258 258 259 259 259 258 257 258 258 259 259 259 260 262 263 269 277 280 281 282
277 273 275 273 271 269 269 268 267 266 266 266 265 264 263 262 261 260 259 259 259 258 258 258 258 258 259 259 258 258 258 258 258 258 258 259 260 262 264 265 268 272 276 279
268 268 268 267 267 266 265 264 262 263 263 262 262 261 260 259 258 258 258 258 258 259 257 257 255 255 257 257 257 257 257 258 258 258 258 259 260 261 263 264 266 271 271 275
264 264 264 263 263 262 261 260 259 260 260 260 259 258 258 257 256 256 257 259 257 255 255 255 255 256 258 258 258 258 258 259 259 259 259 259 260 261 262 264 267 269 270 271
261 260 258 257 259 259 258 259 259 259 258 257 256 256 255 255 255 256 256 258 257 256 256 256 256 258 258 259 259 259 259 259 259 259 258 259 259 261 263 265 267 268 269 271
258 258 258 257 257 257 257 257 257 256 255 256 255 255 254 253 254 256 257 257 257 256 257 258 257 257 259 259 259 259 260 260 260 260 260 259 260 262 264 266 267 266 268 270
255 255 256 257 257 255 255 254 254 255 255 254 253 252 253 255 256 257 257 256 256 255 256 257 259 258 258 259 260 260 259 260 260 261 263 263 262 263 266 266 266 267 268 270
253 253 253 253 253 252 252 253 253 252 252 250 249 251 253 255 257 256 256 255 256 256 257 256 257 257 258 258 260 259 259 259 260 261 262 262 263 263 264 264 263 261 261 262
249 250 251 251 251 251 251 251 250 250 250 249 250 253 254 257 257 256 255 254 257 257 257 257 256 258 258 258 258 258 258 259 259 259 260 260 260 260 260 260 260 260 259 260
246 246 248 249 248 248 248 247 247 248 249 250 252 254 256 256 256 255 255 254 255 256 256 255 256 258 258 258 257 256 257 257 257 258 258 258 258 258 258 258 258 258 258 258
244 244 247 247 247 247 246 247 247 247 250 252 255 256 256 256 256 254 253 255 255 255 256 255 257 259 258 255 255 255 255 255 256 256 257 257 257 257 257 257 257 258 258 258
241 241 242 244 241 241 244 248 247 250 253 256 257 257 256 255 255 255 256 256 254 255 254 256 257 259 256 254 253 253 254 254 255 255 255 256 255 256 256 256 256 257 257 257
240 241 240 242 244 247 247 249 253 255 256 257 257 257 257 257 255 256 256 255 256 254 253 255 258 257 254 253 253 253 253 253 253 254 254 254 255 255 255 256 256 256 256 256
242 244 245 245 248 251 254 256 255 256 256 256 256 257 257 257 257 257 256 256 254 254 253 253 253 253 253 253 253 253 253 253 254 254 254 253 253 253 253 253 254 254 254 254
243 249 247 250 253 254 255 256 255 255 256 256 255 256 256 256 256 256 256 255 254 253 252 252 252 253 252 252 252 253 253 253 253 253 252 252 253 253 253 253 253 254 254 254

GFSNGP_sfc_thetae_006.txt.gz
Theta_e
287 288 288 287 286 286 284 284 279 283 283 287 290 285 282 281 281 283 280 281 282 283 286 285 285 284 285 285 285 286 284 285 285 287 287 286 285 285 286 286 286 287 287 286
280 285 285 282 284 285 283 283 282 282 281 288 281 281 280 280 280 282 280 281 282 283 284 285 284 283 283 283 284 285 283 283 284 285 285 283 283 283 284 284 285 286 285 286
276 282 280 275 279 281 282 284 283 278 281 280 278 279 280 280 280 282 280 281 282 283 283 285 284 282 282 282 283 284 282 282 282 283 282 281 281 282 283 282 284 283 284 285
275 277 269 280 282 282 280 282 279 277 277 279 279 280 282 282 281 282 281 282 282 283 283 285 284 282 282 282 281 282 281 280 281 281 279 279 278 279 282 282 282 282 283 284
272 272 276 278 280 279 277 278 280 279 278 278 280 281 280 283 283 283 283 283 284 284 283 283 281 281 280 280 279 280 279 279 279 279 277 276 274 276 279 280 281 282 282 283
269 267 265 275 278 280 279 272 279 278 278 278 278 273 277 283 283 283 283 284 283 282 281 280 280 279 278 277 277 276 277 277 278 277 274 273 274 274 276 278 279 281 281 282
272 270 273 278 278 280 269 272 280 279 279 279 277 279 282 283 283 283 283 282 281 281 279 279 279 278 275 275 274 276 276 275 274 274 272 272 272 273 273 274 275 276 278 280
266 266 265 278 277 273 278 281 281 280 280 279 280 281 281 282 283 283 281 280 280 278 277 277 276 275 273 272 274 273 272 270 270 269 269 269 268 269 269 270 271 273 276 278
271 272 278 280 280 281 282 281 281 281 282 281 280 280 281 281 281 279 278 277 277 274 273 273 273 272 270 270 270 268 267 265 265 265 266 266 265 266 267 268 269 271 274 277
274 277 278 280 282 282 282 282 282 282 281 281 279 280 279 278 277 276 275 273 273 271 269 268 269 268 267 267 266 264 262 262 262 262 262 263 264 265 265 266 267 269 272 275
274 277 278 280 281 282 282 283 282 281 279 278 277 276 275 274 273 272 271 270 269 267 266 265 266 265 264 264 263 261 260 261 261 261 261 261 262 263 264 265 267 267 269 273
272 278 278 278 282 283 280 280 278 276 274 273 272 272 271 270 270 268 267 267 265 264 263 263 262 262 262 262 261 260 260 260 260 260 261 261 261 261 265 267 269 270 272 272
277 281 281 281 282 279 277 275 273 271 270 270 269 268 267 266 266 265 264 263 262 262 261 261 261 260 261 261 260 258 258 259 259 260 260 260 260 259 259 262 266 268 271 273
281 280 278 280 278 272 272 270 269 267 268 267 266 265 264 263 263 262 261 261 261 260 259 260 260 259 260 259 258 258 258 258 259 259 259 259 259 259 260 259 259 262 268 271
279 274 274 271 270 269 267 266 265 265 265 264 264 262 261 260 260 260 260 259 259 259 259 260 259 258 260 259 259 258 259 259 260 260 260 260 260 260 260 260 260 261 264 268
269 268 267 268 267 265 263 263 262 263 262 262 260 260 260 259 258 257 258 258 257 258 259 259 258 259 259 258 257 259 260 260 260 260 260 260 260 260 261 261 262 262 264 267
266 264 262 263 264 263 261 261 261 261 260 259 258 258 257 256 255 255 256 258 259 259 259 259 259 259 258 259 259 259 260 261 261 261 261 261 261 261 261 261 261 263 265 271
262 261 261 260 260 260 260 260 259 258 257 257 257 256 255 253 253 255 256 258 258 258 259 260 259 259 259 258 259 260 261 260 261 261 262 263 264 264 262 262 263 265 268 270
258 258 257 258 258 257 257 256 256 256 256 256 254 253 254 254 255 256 258 257 257 257 259 259 260 258 258 259 261 260 260 260 261 262 262 263 264 265 265 265 267 268 267 268
255 255 255 255 255 254 254 255 255 254 254 253 251 251 251 253 254 256 257 257 257 259 258 257 257 257 259 259 259 259 259 260 260 261 261 261 262 262 263 263 263 263 263 263
253 253 253 253 253 253 253 253 252 251 252 252 250 251 251 254 256 257 257 257 259 258 257 257 257 258 259 257 258 258 258 258 259 259 259 259 260 261 261 261 261 261 261 261
251 250 251 251 251 250 251 250 250 250 250 250 251 251 252 255 257 258 258 257 258 257 257 257 258 259 259 257 257 257 257 257 258 258 258 258 258 259 259 259 259 260 259 259
250 249 250 249 249 250 249 249 250 250 250 251 252 254 257 258 258 257 256 259 258 257 257 257 257 259 259 257 257 257 256 256 257 257 258 258 258 258 258 258 258 259 258 259
248 248 248 249 246 247 250 254 252 253 251 253 256 257 258 257 258 259 259 258 257 257 256 257 257 259 256 256 256 256 256 256 256 256 256 256 257 258 258 258 258 259 259 259
246 246 246 247 250 253 251 253 253 255 257 258 258 258 258 259 257 258 258 258 258 256 256 256 258 257 256 256 256 256 256 256 255 256 256 256 256 256 256 257 257 258 258 258
249 251 251 249 251 253 254 255 256 257 257 257 258 258 258 258 258 258 258 257 257 256 256 256 255 255 255 255 255 255 255 255 255 255 255 255 255 256 255 256 256 256 256 256
250 250 252 253 254 255 255 256 256 256 257 257 257 257 258 258 257 257 257 256 256 255 255 254 255 254 254 254 255 255 255 254 254 254 254 254 254 255 255 255 255 256 256 256

GFSNGP_sfc_thetae_009.txt.gz
Theta_e
287 288 288 286 285 285 284 285 281 284 284 288 290 290 290 291 286 284 284 282 283 283 284 286 286 285 285 285 285 285 284 285 284 285 285 285 284 283 283 284 285 285 285 285
280 284 284 281 284 284 285 285 285 285 283 290 289 285 284 284 282 282 284 282 283 283 284 284 285 286 284 284 285 285 283 283 283 283 283 283 282 281 281 281 283 284 283 283
274 280 280 276 280 282 283 285 284 279 282 282 282 282 282 283 283 281 283 283 282 283 284 284 285 285 284 283 284 283 282 282 282 281 281 281 281 280 279 279 280 281 281 282
275 276 268 279 285 283 280 281 283 282 280 280 280 281 282 283 283 282 283 283 283 284 284 285 285 284 283 283 282 281 280 280 281 280 279 280 279 278 277 278 278 278 279 280
272 272 276 279 281 280 278 278 283 281 279 279 280 281 281 284 285 284 284 285 285 285 284 284 283 283 281 280 279 279 278 278 278 278 277 277 276 275 275 275 275 275 276 277
275 269 266 276 280 281 280 272 283 280 279 279 279 274 278 284 284 284 284 285 285 284 283 282 282 281 278 277 276 276 276 276 276 276 275 274 274 273 274 273 273 274 274 275
273 271 274 282 280 281 270 274 282 281 280 280 277 280 283 285 284 285 285 285 283 283 281 280 280 277 275 275 273 274 274 273 272 272 271 271 270 271 270 269 270 269 270 271
271 268 266 280 279 274 279 283 282 281 281 281 282 282 283 283 283 284 283 282 281 279 278 278 276 274 272 271 272 271 269 268 267 266 266 267 265 265 265 265 265 265 266 268
274 273 280 281 281 283 284 283 282 282 283 282 282 281 282 282 282 281 280 278 277 274 273 273 272 271 269 269 269 267 265 263 263 263 263 263 262 262 262 263 263 264 265 265
275 277 279 281 283 284 284 283 283 284 283 283 281 281 281 281 279 277 276 274 273 271 269 268 269 269 267 267 266 263 262 262 262 261 262 262 262 262 261 261 261 262 262 263
275 278 280 281 282 283 283 284 283 283 283 281 280 279 278 277 274 274 272 271 270 268 267 266 267 266 265 264 263 261 261 261 261 261 261 261 262 262 262 263 263 261 262 263
273 279 279 280 283 284 282 282 282 281 279 276 275 274 273 272 272 270 269 268 266 265 265 264 264 263 263 263 262 260 259 259 259 259 260 260 260 260 265 267 268 269 269 268
279 282 282 282 283 283 282 280 278 276 274 274 272 270 269 268 268 267 265 265 264 263 263 262 261 261 262 262 261 259 258 258 259 259 259 259 259 259 258 262 266 267 268 269
283 282 279 281 280 280 276 274 272 270 270 270 269 267 266 265 264 263 263 263 263 261 260 260 260 260 262 262 261 259 258 258 259 259 259 260 260 260 260 259 259 260 264 266
282 282 281 278 275 273 272 270 268 268 269 267 266 264 263 262 262 262 262 260 260 259 259 260 260 260 262 261 260 258 258 258 259 260 260 261 261 261 261 261 261 261 262 265
280 272 270 271 272 271 268 267 266 267 266 265 263 262 262 261 260 259 259 259 257 258 258 259 259 260 261 259 258 259 259 259 260 260 261 261 262 262 262 262 261 261 262 262
270 269 266 266 268 268 265 265 264 264 263 261 260 260 258 257 256 256 256 257 258 258 259 259 260 260 259 259 258 258 259 260 260 260 261 261 262 263 264 264 263 262 262 265
267 266 265 264 266 265 263 262 262 260 259 259 259 258 256 254 254 255 256 257 257 258 259 261 259 259 259 258 258 260 260 259 260 260 261 262 262 263 264 264 264 264 265 267
262 262 261 262 261 260 259 259 259 258 258 257 256 255 255 255 255 255 256 255 256 257 260 259 261 258 257 258 261 259 259 259 259 260 261 261 261 262 262 262 262 263 263 263
258 258 258 257 257 256 256 257 256 256 256 254 252 252 252 253 253 254 255 256 258 259 260 258 257 257 258 259 259 259 259 258 258 259 259 259 260 260 261 261 261 261 260 261
256 256 255 255 255 255 255 254 254 253 254 253 252 252 252 253 254 254 255 258 260 259 258 257 258 258 259 258 259 259 258 258 258 258 258 258 259 259 260 259 259 260 260 260
254 253 254 253 253 253 254 252 252 251 252 252 252 251 251 252 254 256 258 257 260 259 258 258 258 258 258 257 259 258 258 258 257 257 257 257 258 258 258 259 259 259 259 259
252 252 253 252 251 252 250 251 251 252 251 252 252 253 255 257 259 258 258 260 259 258 259 258 258 259 259 258 258 258 257 257 257 257 257 257 257 257 257 258 259 259 259 259
251 250 251 251 248 249 250 255 253 255 252 252 253 254 256 258 259 261 261 260 259 259 258 258 259 260 256 257 257 257 257 256 256 256 256 256 256 257 257 257 257 258 258 258
249 249 249 248 251 255 253 255 254 255 256 258 259 259 259 260 258 259 259 259 259 258 257 258 259 258 257 257 256 256 256 256 256 256 255 255 255 255 255 256 256 256 257 257
251 254 254 251 253 254 255 256 256 257 257 257 258 259 259 259 259 259 259 259 258 258 257 257 256 256 256 256 256 256 256 256 255 255 255 255 255 255 255 255 255 256 256 256
252 252 254 255 255 256 255 256 256 256 257 257 257 258 258 258 258 258 258 257 257 257 256 255 255 255 254 254 255 255 255 255 254 253 253 254 253 253 254 254 255 255 255 255

GFSNGP_sfc_thetae_012.txt.gz
Theta_e
284 286 285 283 282 283 281 282 279 280 280 284 286 284 282 285 285 283 284 281 281 280 281 280 281 282 282 281 281 281 280 279 279 280 280 280 279 279 279 278 279 279 280 281
274 281 281 279 280 281 281 281 280 281 280 286 282 282 282 283 282 280 280 282 281 281 281 281 281 282 283 282 281 280 279 278 280 280 280 279 279 279 279 278 277 277 277 278
271 277 276 269 276 278 280 282 281 277 278 277 278 280 279 279 280 280 279 280 280 281 281 282 281 282 281 280 279 277 276 276 277 277 278 278 278 278 278 277 277 276 276 276
266 267 261 275 281 279 278 278 278 277 273 276 277 278 279 280 280 280 280 281 281 281 281 281 281 280 279 279 277 277 276 275 275 276 276 276 276 275 276 276 275 275 274 275
265 264 272 276 278 276 274 273 277 276 277 276 277 277 276 280 281 279 280 281 281 281 281 280 279 278 277 276 276 276 275 275 275 274 273 273 272 272 273 272 272 272 273 273
264 263 258 272 277 279 278 268 273 274 272 274 276 269 273 280 281 281 281 281 280 279 279 278 276 275 275 274 272 272 273 273 272 271 269 269 269 269 269 268 269 270 269 270
269 267 267 275 276 278 264 269 275 275 276 276 273 276 278 280 280 281 280 280 279 278 277 276 274 273 272 271 270 271 270 269 268 267 266 265 265 265 265 264 265 264 264 265
262 259 261 276 275 271 274 279 278 279 278 278 278 279 279 279 279 279 279 278 276 275 274 273 273 271 269 268 270 268 267 265 264 263 263 264 262 262 262 261 261 261 261 262
269 268 277 278 277 280 280 277 279 279 280 279 278 278 278 278 278 278 276 275 274 270 270 271 268 267 266 267 267 265 263 261 261 262 262 262 261 260 260 261 260 260 260 260
271 275 276 279 280 280 280 279 279 279 279 279 278 278 278 278 276 275 273 271 270 267 265 265 265 267 263 265 264 262 260 260 261 260 260 260 261 261 260 260 259 260 259 259
272 276 278 279 279 280 281 281 279 279 279 279 278 277 276 274 272 272 271 269 267 265 265 264 265 264 261 263 261 260 260 260 260 260 259 259 259 259 260 261 262 262 263 264
272 278 277 278 280 280 279 279 279 278 277 276 275 275 273 271 271 270 268 267 265 263 263 262 260 261 261 258 258 259 259 259 259 259 259 259 259 259 264 266 268 269 270 269
277 280 280 280 280 280 279 278 278 276 275 274 272 271 270 269 268 266 265 263 262 261 261 259 259 259 259 258 257 259 259 259 259 259 258 258 258 258 258 262 267 268 269 269
281 280 278 280 279 277 277 274 273 271 270 270 269 266 266 265 264 262 262 261 260 259 257 255 256 257 258 257 259 259 258 258 258 258 258 258 259 259 259 259 259 260 265 267
280 280 279 276 274 272 272 270 266 268 268 266 265 263 262 261 260 261 260 258 257 255 255 255 254 257 257 257 259 257 257 258 258 258 259 259 260 260 260 261 261 261 263 266
278 271 269 270 270 270 268 266 265 266 265 263 261 262 261 259 257 255 255 254 252 254 254 253 256 258 256 257 257 257 257 258 259 259 259 259 260 260 261 261 262 263 263 264
268 266 263 263 266 267 265 265 265 264 263 261 260 258 255 253 252 251 252 250 250 252 254 254 256 256 257 257 256 256 257 258 258 258 258 258 260 260 260 261 261 261 262 264
266 265 265 264 265 264 263 262 261 260 258 258 258 257 254 251 252 252 252 249 249 251 253 254 252 256 257 255 254 258 257 256 257 257 258 258 258 259 260 260 260 260 260 261
261 262 262 263 261 260 259 258 257 257 257 256 254 252 253 254 253 251 248 247 248 250 253 250 259 258 256 256 260 257 256 256 256 256 257 257 258 258 258 259 259 259 259 259
257 257 257 256 256 254 254 254 253 252 251 251 249 247 248 249 248 247 245 248 251 255 250 250 252 256 257 256 257 254 253 255 256 256 256 256 257 257 258 258 258 258 259 259
254 254 254 254 253 252 251 250 249 249 249 248 247 248 248 247 245 246 245 249 252 250 251 254 256 257 257 257 255 250 252 253 253 254 254 255 255 256 257 257 258 258 258 259
250 250 252 251 249 248 248 247 247 247 247 246 247 247 245 247 247 248 251 253 252 257 254 257 258 258 259 258 254 252 252 251 251 252 254 254 255 255 255 256 256 257 258 258
247 248 250 248 247 246 244 244 245 246 247 247 248 248 249 252 253 255 252 255 256 257 258 258 258 260 260 256 253 252 251 251 251 252 252 253 253 254 255 255 256 256 256 257
245 246 246 245 243 243 244 246 245 247 247 249 248 250 251 251 253 257 258 259 259 259 259 259 259 261 258 253 252 252 250 249 250 249 250 253 250 252 253 253 254 255 256 256
244 244 243 243 244 246 245 246 246 248 248 250 253 253 254 257 256 257 258 258 260 259 258 259 260 259 253 252 251 251 250 250 248 248 249 249 250 251 252 253 253 253 254 255
244 246 246 245 245 246 247 249 249 249 249 249 251 254 256 257 258 259 259 259 258 258 257 257 255 253 251 251 250 250 251 251 251 250 250 249 249 250 251 251 252 253 253 253
245 247 246 246 247 248 247 248 247 247 250 252 255 257 257 257 257 258 257 257 257 256 256 253 253 253 251 250 249 250 250 249 251 250 246 247 247 247 249 250 250 250 251 252

GFSNGP_sfc_thetae_015.txt.gz
Theta_e
283 284 283 282 281 282 280 281 277 280 279 283 284 279 280 281 284 283 282 281 280 280 280 279 280 281 281 280 280 280 279 279 278 278 279 279 278 279 278 278 278 278 277 277
273 281 281 278 280 280 280 280 279 280 278 284 279 280 279 281 281 279 280 280 280 280 280 280 280 280 281 280 280 280 278 278 278 278 279 279 278 278 278 278 277 277 277 277
269 278 275 268 276 277 278 279 278 274 278 276 277 279 277 277 278 278 278 279 278 279 280 280 280 281 280 279 278 276 275 274 275 276 276 276 277 276 275 275 275 275 275 275
264 264 259 274 278 279 277 278 276 276 272 275 277 277 278 278 278 278 279 279 280 279 279 280 280 279 278 278 276 276 274 273 273 274 273 273 273 272 272 272 272 272 272 272
263 257 269 274 277 276 275 272 276 274 275 276 277 275 274 278 279 278 279 280 280 279 279 278 277 276 276 275 275 275 274 274 273 271 269 269 268 268 268 268 268 268 269 268
262 264 259 271 277 278 277 268 272 270 272 273 275 269 271 278 280 280 280 280 279 278 278 276 274 274 274 273 271 271 272 271 270 269 266 266 266 265 265 265 265 266 265 265
271 268 267 273 275 278 264 268 271 273 274 275 273 274 277 279 279 280 279 279 278 276 274 273 273 272 271 270 268 269 269 268 266 266 264 264 263 264 263 262 263 262 262 263
258 255 261 276 274 271 274 278 277 277 277 277 278 278 278 279 279 279 278 276 276 274 273 272 271 269 268 267 269 266 265 263 263 261 261 263 261 261 261 260 260 260 260 261
268 267 276 277 276 279 279 276 279 278 279 278 278 277 278 278 278 278 277 275 273 270 270 270 267 267 265 266 265 264 259 258 258 260 261 261 259 259 259 259 259 259 260 260
270 274 275 277 278 279 279 279 279 279 279 279 277 278 277 277 277 275 272 271 269 266 264 264 265 266 263 263 263 255 254 258 260 260 260 259 260 260 259 258 258 259 259 259
271 276 276 277 278 279 279 279 278 278 278 278 277 277 277 276 274 273 271 269 267 265 264 263 264 262 259 261 258 257 258 260 260 260 259 259 260 259 260 261 262 262 264 265
271 278 277 277 279 279 279 279 279 278 277 277 277 277 275 272 271 270 268 266 264 263 262 261 258 258 257 255 254 254 258 259 259 259 259 259 259 259 264 266 268 269 270 269
277 280 280 280 279 279 278 278 278 278 278 276 274 272 271 270 268 267 264 264 263 262 262 257 256 257 255 255 252 252 255 258 258 259 258 258 258 257 257 261 267 268 269 270
280 279 277 279 278 278 278 278 274 271 271 272 270 266 266 265 264 262 262 261 259 258 256 253 253 254 256 253 251 251 252 257 257 257 257 258 258 258 259 258 258 260 265 268
278 279 280 278 275 274 273 270 268 269 268 266 265 264 263 262 261 262 261 258 256 254 254 252 251 254 254 252 252 251 255 257 257 257 257 258 259 259 259 259 260 260 261 264
279 272 272 274 276 270 269 267 268 267 266 264 262 262 262 260 258 256 257 254 252 253 253 251 253 255 252 250 250 251 253 257 258 257 257 257 258 258 259 259 259 259 259 259
269 269 263 265 268 268 267 266 266 265 264 262 260 258 256 253 253 254 254 253 250 252 251 251 253 252 250 250 249 252 255 257 256 256 255 256 257 257 257 258 258 258 258 260
270 268 267 267 267 266 264 262 262 261 258 258 257 255 253 250 251 251 250 248 248 250 252 252 250 250 247 248 249 253 255 254 254 254 255 256 256 256 256 257 257 258 258 260
262 263 263 264 263 262 260 258 256 257 256 255 253 252 251 250 249 248 246 244 246 246 251 247 256 251 248 250 256 255 254 253 254 253 254 255 255 255 255 256 257 257 258 258
258 258 258 256 256 254 254 253 253 252 249 249 247 246 246 246 244 244 243 245 248 252 249 247 247 247 249 252 259 255 253 252 252 251 250 253 253 254 254 255 256 256 257 257
255 255 254 254 253 252 251 250 249 249 248 246 246 246 245 246 243 242 242 245 250 248 247 250 248 251 253 257 258 255 252 251 250 249 248 250 251 252 254 254 255 256 256 256
250 251 252 251 251 248 245 245 246 247 246 245 244 244 243 246 243 244 247 250 251 254 253 253 254 255 257 259 257 255 252 251 248 248 247 247 248 250 251 252 253 254 255 255
248 249 250 249 248 247 242 243 244 244 245 244 245 245 246 250 249 249 251 251 252 257 257 256 258 260 262 257 256 253 251 250 249 248 247 247 249 248 249 250 251 252 253 253
244 245 244 243 242 243 246 246 243 243 244 245 246 248 249 249 248 252 256 258 259 258 256 257 259 262 258 256 255 252 251 248 248 246 246 250 246 248 248 249 250 251 252 252
247 244 242 243 244 246 243 245 244 245 245 245 246 249 249 253 253 253 256 257 260 259 258 259 260 259 256 254 251 252 250 248 246 244 245 244 245 245 246 247 248 249 250 251
246 248 244 245 246 245 245 245 246 245 245 246 246 250 251 255 257 258 257 258 258 258 257 257 256 256 255 252 252 251 251 250 249 247 246 245 244 245 246 247 247 248 248 248
247 249 249 247 245 244 244 245 245 246 245 244 247 252 256 257 257 257 257 257 257 256 256 256 255 254 253 252 251 251 251 249 250 249 245 245 244 244 245 246 245 246 248 248

GFSNGP_sfc_thetae_021.txt.gz
Theta_e
283 282 283 283 282 281 281 280 277 279 278 281 283 284 284 285 285 283 284 281 279 280 278 277 277 277 277 277 278 278 277 277 277 277 277 276 275 275 275 274 274 274 273 273
278 283 283 282 283 283 284 283 281 282 280 286 282 282 279 281 281 281 282 280 279 279 279 278 278 278 278 278 278 278 277 276 276 275 275 274 274 273 273 272 272 272 271 271
279 278 278 275 276 279 281 281 280 277 281 275 278 279 279 279 279 279 279 281 280 279 279 279 278 279 278 278 278 275 274 271 271 273 272 272 271 271 270 269 270 269 269 269
273 269 269 278 276 278 278 278 277 276 273 275 278 278 279 278 278 278 278 278 278 278 278 278 278 278 277 277 275 274 272 270 270 271 269 269 268 268 268 268 267 267 267 266
272 266 272 276 276 275 275 273 276 277 275 277 277 274 273 277 277 277 277 278 279 279 278 277 277 277 276 274 274 273 272 271 270 268 266 267 264 265 265 265 265 264 265 265
265 265 265 273 276 278 277 268 272 273 273 273 274 269 273 276 278 278 279 279 279 279 278 276 275 275 274 272 270 270 271 270 269 267 263 262 264 263 264 262 264 264 264 264
271 270 267 272 275 277 266 271 271 273 274 274 272 275 277 277 277 279 279 279 278 277 276 275 273 272 271 270 268 269 268 267 266 265 262 262 261 262 261 260 262 260 261 261
265 260 263 276 275 272 275 275 276 276 277 276 277 278 277 278 278 278 278 278 279 276 274 272 272 271 269 268 268 266 265 265 263 259 260 261 255 258 257 258 257 258 258 259
271 270 276 277 277 279 278 276 277 278 278 278 278 277 278 277 277 278 278 278 277 274 272 271 268 268 267 267 266 265 261 260 256 257 259 259 254 257 258 256 256 258 259 259
271 274 275 277 279 278 279 278 279 279 279 278 278 277 277 277 277 277 276 274 272 270 269 267 265 267 264 265 264 259 258 259 258 257 257 257 259 260 258 257 257 258 258 259
270 274 274 277 278 279 279 279 278 278 279 278 277 277 276 277 276 276 275 271 270 270 269 266 265 264 263 263 260 258 258 259 257 256 255 257 258 259 259 260 261 261 264 265
269 276 276 277 278 280 278 278 278 277 277 277 277 277 277 276 276 275 272 268 267 266 265 263 262 261 260 258 257 256 258 259 257 257 257 258 258 258 263 267 269 270 271 270
276 279 279 280 280 279 278 278 278 277 277 277 277 276 275 275 272 270 267 266 265 264 262 260 259 259 260 258 255 254 255 256 256 257 256 256 256 256 255 259 266 267 268 269
279 278 277 277 278 278 278 278 276 275 275 275 276 269 270 269 265 265 264 263 262 260 258 256 255 256 259 255 255 255 251 254 253 254 254 253 254 255 255 255 255 257 262 265
278 279 280 279 276 277 275 273 271 273 272 270 266 267 265 264 263 264 261 259 259 255 253 254 253 257 254 251 252 252 251 253 252 252 252 254 255 255 255 255 256 256 257 260
281 275 276 275 277 274 272 268 271 273 271 265 264 264 264 263 261 258 256 254 254 254 253 253 254 257 253 252 252 248 249 252 253 251 251 251 253 253 254 255 255 255 255 256
271 270 264 269 274 273 271 273 273 271 266 266 264 261 258 256 253 250 249 247 249 250 250 250 253 252 249 250 250 251 249 248 252 250 247 248 250 251 254 255 254 253 254 257
278 279 274 273 273 272 270 268 266 264 261 261 259 257 255 252 252 250 247 244 245 247 250 251 251 248 246 246 247 249 249 249 245 247 249 250 249 252 254 254 252 253 254 256
272 274 268 268 264 265 263 262 259 258 257 257 256 254 252 250 249 246 242 243 244 244 251 246 254 252 246 247 249 249 249 248 247 247 248 250 250 251 253 251 250 251 252 253
261 262 261 259 258 257 257 255 255 253 250 252 250 249 247 245 242 242 241 244 247 250 247 249 248 249 249 248 255 249 247 248 249 248 248 249 251 253 252 252 251 250 249 249
257 257 256 256 254 253 253 253 253 251 248 249 250 247 246 243 241 242 243 244 250 246 245 249 246 249 248 249 250 246 245 247 249 249 247 251 252 252 251 247 247 248 248 247
251 253 253 254 253 250 249 249 249 249 249 248 245 245 244 245 244 245 246 248 249 251 249 248 249 251 253 256 255 254 252 250 249 249 250 251 252 250 249 248 248 248 248 247
251 252 254 252 252 249 246 245 245 247 248 247 248 245 248 251 250 247 248 247 246 248 250 251 254 258 261 259 256 254 254 254 253 253 253 253 252 249 248 248 247 247 246 247
252 251 249 249 249 250 250 246 243 244 244 245 247 249 250 247 246 247 249 251 252 253 252 253 257 262 260 255 254 254 254 253 254 254 254 253 249 248 246 247 246 246 246 246
251 249 249 249 250 247 246 243 245 246 247 249 248 245 244 248 248 247 247 253 255 255 253 256 262 261 256 255 255 255 254 253 253 252 251 249 249 247 246 245 244 245 245 246
246 247 246 246 248 247 247 248 248 244 245 247 245 244 244 245 249 252 253 252 251 254 254 256 256 257 256 256 255 255 254 254 254 253 252 250 249 248 248 247 246 247 247 246
248 248 247 247 246 246 246 249 250 251 247 242 244 244 245 246 248 253 251 251 252 254 256 256 257 256 256 255 255 254 254 253 253 252 251 250 249 248 247 247 246 246 246 247

GFSNGP_sfc_thetae_024.txt.gz
Theta_e
283 283 283 283 283 281 281 284 283 284 283 283 286 285 284 284 284 283 283 282 281 281 280 280 278 278 277 277 278 278 277 277 277 277 276 275 274 274 273 273 273 272 272 271
278 283 282 281 283 281 284 284 282 281 281 287 285 283 281 284 284 282 282 283 283 280 280 279 278 278 278 277 277 277 277 276 276 275 275 273 273 272 272 271 271 270 270 269
279 277 279 278 280 282 282 282 284 281 285 278 279 281 281 280 280 280 281 282 282 280 279 279 278 279 277 278 277 276 275 273 272 272 272 271 270 270 270 269 269 268 268 268
274 274 271 278 275 279 284 283 281 277 275 276 278 278 280 279 279 280 279 278 279 280 278 278 278 278 277 278 276 275 273 270 270 270 269 269 268 267 267 267 266 266 266 266
275 272 276 278 276 275 276 276 277 279 278 277 277 275 275 278 278 278 278 278 278 278 277 276 277 277 276 275 275 274 272 271 270 268 266 266 263 264 265 264 264 263 265 264
270 270 270 273 276 278 278 271 274 277 276 274 274 270 273 277 278 278 278 278 278 278 278 277 277 276 274 273 272 271 271 271 269 267 263 262 264 263 263 261 264 264 264 263
274 274 274 274 275 277 270 274 272 274 274 274 273 275 277 278 277 278 278 278 278 277 277 277 275 273 273 271 270 270 269 267 266 265 262 262 261 261 259 258 262 259 260 261
270 270 270 276 275 274 277 276 277 276 276 277 277 278 277 278 278 277 278 278 279 277 276 275 273 272 271 270 269 267 266 265 264 261 262 261 255 256 255 255 255 256 257 259
274 273 276 278 277 279 279 277 276 277 278 278 277 277 277 277 277 277 277 277 277 276 275 273 270 270 269 268 266 264 262 262 260 261 261 261 256 258 256 253 254 257 259 259
272 274 275 277 279 278 278 278 279 279 278 278 278 278 277 277 276 276 276 276 273 270 270 270 267 268 266 266 264 259 257 260 261 260 260 260 261 260 255 254 256 258 258 258
271 274 275 277 278 280 279 279 278 278 278 278 277 277 276 276 275 275 275 273 271 272 271 270 266 264 263 263 261 258 258 261 260 260 259 259 259 258 259 260 260 258 259 262
270 276 276 277 279 280 279 278 278 277 276 276 277 277 276 276 276 275 274 270 269 268 268 265 264 262 260 259 259 258 259 260 260 260 260 259 258 258 263 267 269 270 272 271
276 278 278 279 279 279 278 278 278 277 277 276 276 276 274 275 273 272 268 268 268 267 264 262 261 261 258 256 256 255 256 260 259 259 258 257 256 256 255 259 265 267 268 269
279 278 276 277 278 278 278 278 276 274 274 275 276 270 271 270 265 266 267 266 264 263 260 259 257 256 256 255 253 253 257 259 257 257 256 254 254 254 254 254 253 255 261 264
278 278 280 278 276 277 274 273 271 273 273 271 269 269 267 266 265 265 262 260 260 257 255 255 253 256 254 253 254 255 256 256 256 255 254 254 254 254 254 254 254 254 255 259
276 275 275 274 277 274 272 269 272 273 271 271 268 266 266 264 261 258 256 255 256 255 253 252 254 254 251 251 252 252 254 256 256 252 251 251 253 253 253 253 252 252 253 255
271 271 264 268 274 274 272 274 275 275 269 267 266 262 260 257 254 252 248 247 248 250 249 250 253 250 248 250 251 253 252 251 253 249 249 249 249 250 252 251 252 251 254 257
278 278 273 273 273 272 271 271 269 265 263 262 260 259 257 255 254 251 247 244 246 248 248 250 250 248 246 246 248 250 250 249 246 248 249 249 249 251 251 251 251 253 255 256
271 274 269 270 265 265 263 262 260 259 259 258 259 257 255 252 251 246 243 245 245 246 250 245 255 253 247 248 249 251 252 252 251 249 248 249 248 248 249 249 251 253 253 253
260 261 261 259 258 257 257 256 256 255 253 255 254 253 250 246 244 245 243 247 246 250 246 246 246 249 249 248 255 252 250 251 252 250 247 248 249 249 250 252 253 253 250 249
256 257 257 256 254 254 253 254 254 253 251 253 255 253 250 244 243 245 245 248 250 245 245 249 248 248 248 249 249 245 245 248 249 249 248 250 250 251 253 253 252 251 250 248
251 253 254 253 252 250 248 251 252 252 251 250 249 249 249 247 244 244 245 248 248 252 250 249 247 248 249 254 252 250 252 252 253 252 251 251 251 253 253 253 252 251 249 248
250 251 253 252 252 249 248 249 251 250 250 251 251 250 250 251 249 249 250 248 247 247 248 249 251 254 259 257 255 256 254 254 254 254 253 253 254 253 253 252 251 249 248 247
247 249 247 248 249 250 251 250 250 249 250 248 245 246 248 248 247 246 248 250 250 251 250 251 254 261 260 252 253 254 255 255 255 255 255 255 254 253 252 250 249 249 248 247
250 249 251 252 252 250 249 247 248 245 245 244 244 245 245 249 251 248 246 249 253 253 252 254 260 259 251 251 254 255 255 255 255 254 254 253 253 252 250 248 248 248 247 246
244 245 244 245 246 245 245 245 246 244 245 246 245 245 245 244 247 248 248 250 250 253 251 250 250 252 252 254 255 255 255 255 255 255 254 253 252 251 250 249 249 249 248 246
247 247 245 245 245 243 243 245 245 245 243 242 244 243 244 244 246 249 250 250 250 251 250 250 253 255 254 255 254 254 254 254 254 253 253 252 251 250 250 250 249 248 247 247

GFSNGP_sfc_thetae_027.txt.gz
Theta_e
284 284 284 284 283 282 282 285 283 285 284 284 286 286 285 285 284 284 284 283 283 283 282 281 281 281 280 280 280 280 279 278 278 279 278 277 276 275 274 274 273 273 272 272
280 283 283 281 283 283 285 285 284 285 284 287 287 285 284 285 284 283 283 284 284 283 282 281 281 281 280 280 279 279 279 279 278 278 276 275 274 274 273 272 271 271 270 270
282 278 281 280 282 282 283 283 285 280 287 283 283 284 283 283 284 284 283 282 283 283 281 281 280 281 279 279 278 278 277 275 275 275 275 273 272 271 271 270 269 269 269 268
273 276 274 279 276 283 284 284 281 281 278 282 283 281 282 282 281 281 281 281 281 282 281 280 280 279 278 278 277 277 276 275 273 273 272 270 269 269 268 268 268 267 267 267
275 275 278 277 276 279 280 279 280 284 282 279 278 277 277 279 279 281 281 280 279 280 280 278 278 278 277 276 276 275 275 274 273 271 269 268 266 267 267 266 266 265 267 265
274 273 272 275 276 278 279 275 276 284 282 275 275 271 275 278 279 279 279 279 279 279 278 277 277 277 275 275 274 274 274 274 271 269 266 265 266 265 265 264 266 265 265 264
276 275 277 276 275 278 273 277 274 276 275 275 275 278 278 278 277 278 279 278 278 278 278 278 276 274 274 273 273 273 271 270 268 267 265 265 263 264 262 262 263 260 262 262
275 273 273 277 276 276 279 277 276 276 277 277 277 278 278 278 278 278 278 278 279 277 277 277 275 274 273 272 271 270 268 267 265 263 265 263 259 260 259 259 259 259 259 261
278 277 277 279 279 280 280 278 277 277 278 278 277 277 277 277 277 278 277 277 277 277 276 276 273 272 272 271 269 266 265 263 261 261 262 261 258 260 261 259 259 259 261 261
275 275 276 278 279 279 279 278 279 279 278 278 277 277 277 277 277 276 276 275 274 272 272 273 270 271 271 268 267 263 261 262 261 260 261 260 262 262 260 259 260 260 259 260
272 274 276 278 278 280 280 279 278 277 278 278 277 276 276 276 275 275 275 274 271 273 274 274 269 268 266 266 264 262 261 262 262 261 260 262 262 262 262 262 261 257 258 260
272 277 277 278 281 280 279 280 278 277 276 276 277 277 276 275 275 275 274 271 270 271 270 270 267 265 262 262 262 262 261 261 261 261 260 261 261 261 264 267 269 271 272 271
277 279 279 279 280 279 279 279 278 278 278 277 276 276 274 274 274 273 270 270 270 271 269 264 263 263 260 259 259 259 260 261 261 261 260 259 259 259 258 261 265 267 268 270
279 278 276 277 278 279 279 278 276 274 274 275 275 271 272 272 266 268 269 268 264 263 260 261 260 259 258 256 256 255 254 259 258 258 258 258 257 257 257 256 254 256 261 264
278 278 279 278 277 276 274 273 272 273 274 271 269 271 268 268 268 266 262 260 261 258 255 257 256 255 253 254 255 253 255 256 256 256 256 256 257 256 256 255 255 254 255 259
277 276 275 274 277 272 272 268 272 274 272 272 269 268 267 265 262 258 256 255 258 257 253 254 254 253 251 252 252 251 252 256 255 254 254 254 255 254 255 254 254 253 254 255
271 270 265 268 272 274 272 273 274 274 271 268 269 264 262 259 256 253 251 249 252 252 251 252 252 249 248 250 251 251 251 251 254 252 253 251 252 254 255 253 253 253 253 256
276 276 273 273 273 273 270 271 271 268 265 263 262 260 258 258 258 253 252 251 252 253 251 250 248 247 247 247 248 249 248 249 250 250 252 252 252 253 253 252 253 253 254 255
267 271 269 270 266 266 264 262 260 260 259 259 259 257 256 255 254 252 250 252 252 253 251 247 259 248 248 247 248 249 251 252 250 249 251 251 251 251 251 251 251 251 253 254
261 260 261 259 258 257 257 256 256 255 253 255 255 253 251 250 251 250 251 252 253 253 248 248 247 246 246 247 252 250 249 248 249 249 250 252 253 253 252 252 252 252 251 251
255 256 256 256 254 253 253 253 254 253 252 253 255 252 249 246 249 250 251 252 251 247 247 248 245 248 247 248 248 245 244 246 248 249 248 249 249 252 253 253 252 253 253 253
250 251 253 252 251 249 249 250 251 251 251 251 250 250 250 245 244 246 247 250 249 250 248 247 246 247 248 252 248 246 246 247 249 252 253 253 252 253 253 254 254 254 254 253
249 249 251 250 249 247 247 248 249 250 250 250 251 252 253 253 253 253 251 249 246 247 248 248 250 254 258 254 251 250 251 251 251 253 254 254 254 254 254 254 254 254 253 252
248 248 247 246 247 249 249 247 248 248 249 250 249 250 252 252 248 246 247 248 249 249 248 249 252 261 257 249 249 249 248 249 251 253 255 256 255 255 255 254 253 253 252 250
248 247 248 250 251 250 249 248 248 248 248 247 245 245 244 247 248 247 244 247 251 251 250 253 259 258 249 247 248 248 249 250 253 255 255 255 254 254 254 253 252 251 250 250
249 249 247 248 248 248 249 250 249 244 244 245 244 243 243 243 246 247 247 249 249 250 249 249 248 248 249 249 249 251 253 254 255 255 255 254 253 253 253 252 251 250 250 250
251 252 251 251 250 249 250 250 250 248 246 244 245 243 243 243 245 248 249 249 248 249 248 247 249 251 251 251 252 253 253 254 254 254 252 252 253 252 252 251 251 250 250 249

GFSNGP_sfc_thetae_030.txt.gz
Theta_e
293 292 291 290 289 288 288 290 288 291 289 291 292 292 294 294 293 291 290 291 291 291 291 291 290 289 288 286 285 285 284 284 284 284 284 283 282 281 279 278 278 277 277 276
287 290 289 287 290 289 289 291 291 291 290 296 295 295 292 291 290 290 290 291 291 291 290 290 290 289 288 286 286 285 284 283 284 283 282 281 280 278 277 277 276 275 275 274
285 286 284 282 286 288 289 291 291 286 292 291 290 290 292 292 290 290 291 291 290 290 289 289 290 288 287 287 286 284 283 283 282 282 281 280 278 277 276 275 275 274 273 273
285 281 277 286 285 292 290 291 291 289 289 290 292 292 292 292 292 291 290 290 289 289 289 288 288 286 287 286 284 283 283 282 281 281 280 278 276 275 275 274 273 273 272 272
278 279 285 277 281 286 286 287 289 290 289 286 283 285 286 286 288 290 289 289 289 290 288 286 285 285 283 282 282 282 281 281 280 280 278 276 274 274 273 273 272 272 271 271
278 279 278 283 281 284 288 282 284 289 287 282 283 284 290 285 286 286 287 287 285 284 283 284 284 283 281 281 281 280 281 281 280 279 276 274 274 272 273 272 271 271 270 270
280 279 281 286 281 282 280 285 284 288 286 282 284 288 286 285 284 286 286 284 283 283 283 283 282 280 281 280 279 281 280 278 277 276 274 273 272 271 270 269 269 268 267 268
280 279 278 281 279 281 285 281 283 283 283 282 283 282 282 283 282 282 282 282 283 282 281 282 281 280 280 279 281 278 277 275 274 272 272 270 269 268 267 267 266 266 267 268
282 282 280 282 282 284 284 283 281 283 283 283 281 280 281 281 282 281 282 281 282 281 280 280 279 279 279 281 277 274 273 272 270 269 270 268 267 267 267 267 267 268 268 268
280 279 279 281 281 282 282 283 283 284 283 283 282 281 281 281 281 280 280 279 279 279 278 279 278 277 279 276 274 271 271 270 268 267 267 266 268 268 268 268 268 268 268 268
275 276 278 280 281 282 282 282 282 281 282 283 282 281 281 280 280 280 280 279 278 278 279 279 280 278 277 274 272 271 271 269 269 269 267 268 268 269 268 269 269 268 267 268
277 279 280 281 283 283 282 282 282 281 280 280 281 281 280 280 280 280 279 278 277 277 277 279 277 276 273 271 270 271 270 269 270 269 268 268 268 267 269 270 271 272 273 273
279 281 281 282 283 283 282 283 282 281 281 281 280 280 279 279 279 279 278 277 276 277 277 277 274 272 269 267 268 268 271 270 269 267 268 267 266 266 266 267 268 269 270 271
281 280 278 279 280 281 281 281 280 279 279 280 280 278 278 278 274 276 276 276 276 274 272 271 269 268 266 265 265 265 267 265 268 268 267 267 266 265 265 264 263 264 265 266
279 280 281 280 279 279 278 277 276 277 277 276 275 276 275 274 274 275 272 267 267 266 264 265 264 263 262 262 263 263 265 265 265 265 264 264 264 263 263 262 262 261 262 263
280 278 277 277 279 277 276 274 276 278 276 276 274 273 274 272 269 264 262 263 269 269 262 262 262 260 259 260 261 261 261 260 261 263 262 262 262 261 261 261 260 260 261 261
275 274 272 274 276 277 275 277 277 278 276 274 274 271 268 264 261 259 258 258 261 260 260 261 258 256 257 258 259 262 261 261 259 260 260 260 260 259 260 260 259 259 260 261
277 279 279 279 278 277 275 275 275 273 271 270 268 266 264 262 265 259 257 256 257 256 257 257 257 256 255 256 257 259 259 259 258 258 259 259 259 259 259 259 259 258 259 260
266 268 270 271 269 270 269 268 266 265 264 264 264 262 261 260 259 256 256 258 259 259 256 256 261 256 257 255 256 257 257 258 258 258 257 257 257 257 257 257 257 258 258 258
261 262 263 261 260 260 261 259 260 259 258 259 257 257 255 254 254 254 257 257 256 257 255 255 255 257 255 254 258 258 258 258 258 258 258 257 257 257 258 257 256 257 257 257
256 258 258 257 255 255 255 257 257 256 256 257 258 255 253 252 253 254 257 259 255 253 254 254 255 257 257 256 256 257 257 257 257 257 256 256 256 257 257 257 257 257 257 258
254 254 255 254 254 253 252 254 255 255 255 254 252 252 252 252 252 253 252 257 256 254 256 257 257 255 257 255 258 258 257 256 256 256 256 256 257 257 257 257 257 258 258 258
252 253 253 252 252 251 252 252 253 254 253 253 254 255 257 257 258 258 257 255 256 255 257 258 256 257 259 259 259 258 258 257 257 257 257 257 257 257 257 257 258 258 257 257
251 251 251 251 251 254 253 252 253 253 252 253 253 254 257 256 255 255 255 254 252 254 257 257 258 261 258 259 258 258 257 257 257 257 257 256 257 257 257 257 257 257 257 256
251 252 252 253 253 253 252 253 253 253 253 253 252 252 253 254 256 255 255 255 254 256 257 256 259 259 257 257 257 257 257 257 257 257 257 257 257 257 257 257 256 256 255 255
253 252 252 251 252 253 253 254 254 253 254 254 253 253 253 253 254 255 255 254 255 255 256 257 256 256 257 257 257 257 257 257 257 257 256 256 256 256 255 255 255 255 255 254
253 254 254 254 254 254 254 254 255 254 253 253 254 253 253 253 254 254 253 255 255 255 255 255 256 256 256 257 257 257 257 256 256 256 256 255 255 255 255 255 255 254 254 253

GFSNGP_sfc_thetae_033.txt.gz
Theta_e
294 296 296 293 291 290 288 290 288 292 292 297 294 294 296 296 296 295 293 293 293 293 293 293 292 290 289 289 288 288 286 285 285 286 286 286 284 283 282 281 281 280 279 278
289 294 294 291 293 293 290 291 291 293 293 301 298 297 297 296 295 294 294 293 293 293 293 293 293 292 290 289 288 287 286 285 285 285 284 283 282 282 280 279 278 278 277 276
285 290 290 283 289 291 293 293 293 289 294 295 296 294 295 295 294 293 294 294 293 293 293 293 294 292 291 291 289 286 284 284 283 284 282 282 281 280 279 278 278 277 276 275
285 285 279 290 298 295 293 295 295 294 292 294 294 294 295 298 295 293 293 293 293 294 294 293 294 292 292 290 288 285 284 283 283 282 281 281 280 278 278 278 276 275 275 275
283 283 289 291 284 289 290 291 296 294 292 289 288 290 291 295 296 295 294 294 293 294 294 292 290 289 287 285 285 284 283 283 282 281 280 280 278 277 277 277 276 275 275 274
281 282 281 289 288 290 293 286 292 293 290 286 287 287 294 289 290 291 293 290 290 290 288 287 287 285 283 282 282 282 283 283 282 282 280 279 278 276 277 276 275 275 274 273
284 283 285 288 284 289 283 287 287 292 288 286 287 291 289 288 288 288 288 286 286 285 284 285 285 282 282 282 281 283 282 281 280 280 279 278 277 277 275 274 273 272 271 272
284 282 281 283 282 285 287 285 287 290 287 287 287 285 286 286 285 285 283 283 284 283 283 284 282 282 281 281 282 281 280 278 277 276 277 276 274 273 272 271 270 269 269 270
286 284 281 283 283 285 285 287 284 286 287 288 284 282 284 283 282 282 283 283 283 283 282 282 281 281 280 281 279 277 276 275 274 273 274 273 271 271 270 270 270 270 270 270
283 280 281 281 283 283 284 284 285 286 285 285 284 282 282 282 282 282 282 281 281 280 279 279 279 279 281 279 277 275 274 273 272 271 272 270 271 272 271 271 270 270 271 271
277 278 279 282 283 284 284 283 283 283 285 284 284 282 282 282 281 281 282 280 280 279 279 280 280 279 279 277 275 275 274 273 273 272 270 270 270 271 271 272 273 271 271 271
278 281 284 283 286 286 283 283 283 282 280 281 283 282 281 281 282 282 281 279 278 278 278 279 279 278 277 275 274 274 274 273 273 273 271 271 271 270 274 274 274 274 274 271
280 284 283 284 285 285 284 283 283 282 282 281 281 282 281 281 281 280 279 278 277 278 278 277 276 275 272 271 271 271 275 274 274 271 272 271 270 270 269 272 274 274 275 275
282 282 280 281 281 283 283 283 283 280 281 281 281 279 279 278 276 277 277 277 277 276 273 272 271 269 268 269 269 267 271 268 272 270 271 270 270 269 269 267 267 268 270 270
281 281 282 281 281 280 279 278 277 278 278 277 277 277 276 276 276 276 274 270 269 268 266 266 266 263 264 264 266 267 269 268 268 269 268 267 267 266 266 265 264 264 265 266
281 279 278 279 280 278 277 276 277 278 277 277 275 275 275 274 272 267 265 266 270 271 263 263 263 261 262 263 264 264 264 263 264 265 265 264 264 264 263 263 263 263 262 263
277 277 276 276 277 277 277 278 278 278 276 274 274 272 271 268 264 262 260 261 262 262 262 262 258 258 260 261 264 264 264 262 262 262 262 262 262 262 262 262 261 261 262 263
270 273 275 277 278 278 277 276 275 273 272 271 270 269 266 264 268 261 258 258 258 257 258 258 258 257 258 259 261 262 262 262 261 260 261 261 261 261 260 260 260 260 261 262
265 266 267 267 266 269 269 269 267 266 265 266 266 264 263 262 261 258 259 259 259 260 256 259 264 259 259 257 259 260 260 260 260 259 259 258 258 258 258 258 259 259 259 259
261 262 263 261 261 261 262 261 262 260 260 260 260 259 257 256 256 257 259 256 255 257 258 257 258 258 256 256 261 260 260 259 259 259 259 259 258 258 259 257 258 257 257 258
257 259 258 258 257 256 257 259 259 258 258 259 259 256 255 255 256 257 259 259 255 255 256 257 259 259 259 258 258 259 259 258 258 258 258 258 258 258 258 258 258 258 258 258
255 256 256 256 255 254 254 256 257 256 256 255 254 254 254 255 255 255 253 258 257 256 258 259 259 257 259 258 259 259 258 258 258 258 257 257 257 257 257 258 257 258 258 258
254 255 254 253 253 254 254 254 255 255 256 255 256 257 259 259 260 260 258 256 258 256 259 259 257 258 260 258 260 260 259 258 258 258 258 258 258 258 257 257 257 258 258 258
254 254 253 254 255 255 254 254 255 254 253 254 253 253 258 258 257 258 257 255 254 256 258 259 259 261 257 259 259 258 258 258 258 258 258 257 257 257 257 257 257 257 258 258
254 254 255 255 255 255 254 255 255 255 255 255 255 255 256 257 257 257 257 257 256 257 259 257 259 259 258 258 257 257 257 257 257 257 257 257 256 256 256 256 256 256 256 256
255 254 254 254 255 256 257 257 256 256 257 257 256 256 256 256 256 257 257 256 256 256 257 258 257 257 257 257 257 257 257 257 257 257 257 256 256 256 256 255 255 255 256 256
255 256 256 256 256 256 256 257 258 256 256 256 257 256 256 256 256 256 256 257 257 257 257 257 257 257 257 257 257 257 258 258 258 257 256 256 256 255 255 255 255 255 255 255

GFSNGP_sfc_thetae_036.txt.gz
Theta_e
293 294 292 288 287 288 287 288 286 289 289 293 292 290 292 293 292 292 291 291 290 290 288 287 286 286 285 285 284 284 283 281 281 281 281 281 280 279 279 278 278 277 276 276
288 291 291 289 292 289 289 289 290 290 290 295 296 294 291 293 292 291 291 291 291 290 289 288 287 286 286 285 284 284 282 281 281 281 281 280 280 279 278 277 277 276 275 275
285 288 287 285 289 291 291 291 291 286 292 295 295 292 292 292 293 292 292 292 291 290 290 289 288 287 286 285 284 283 281 280 280 281 280 279 279 278 277 276 276 275 274 274
286 286 279 289 294 295 293 294 295 293 293 291 293 293 294 295 293 292 291 291 291 291 291 290 288 288 286 284 282 282 281 280 279 280 279 277 277 276 275 275 274 274 273 273
283 284 288 289 284 288 289 290 296 295 295 290 289 290 288 292 293 293 291 293 292 292 291 290 288 287 286 283 282 281 280 280 279 279 277 277 276 275 275 274 273 272 272 271
283 282 280 283 283 288 292 285 291 294 294 285 288 287 289 290 290 291 292 290 289 289 287 287 285 285 284 282 281 280 280 281 280 278 277 277 276 274 274 272 274 273 273 271
285 284 286 282 280 286 283 283 281 285 287 286 288 289 290 288 288 288 286 286 285 285 285 284 283 282 281 280 281 280 279 278 277 278 278 277 275 272 272 270 272 269 270 268
285 284 281 283 281 285 284 281 283 284 284 284 283 284 284 284 284 284 283 283 282 282 281 281 281 281 279 279 279 277 277 276 275 275 277 275 274 269 270 270 267 265 264 264
284 283 280 281 282 283 283 283 283 286 286 284 282 282 283 282 282 281 281 281 281 280 279 279 278 278 278 278 277 275 274 273 272 272 273 272 271 269 267 266 267 266 267 266
282 280 280 283 285 284 283 283 283 283 285 284 283 281 280 280 280 280 279 279 277 278 276 275 275 277 274 275 275 273 272 272 270 270 268 268 269 269 268 267 266 267 267 267
276 279 281 283 284 285 286 282 281 281 281 282 280 279 279 280 279 279 279 278 277 277 276 276 274 274 272 273 274 272 271 270 268 267 268 266 267 266 268 266 268 263 263 264
279 282 284 284 286 286 285 283 280 280 279 281 281 280 280 279 279 279 278 275 275 274 274 274 274 271 271 272 272 271 269 269 269 269 267 267 266 264 274 274 275 277 277 269
281 284 285 285 286 285 283 281 281 280 281 280 279 279 278 278 277 277 274 274 274 276 273 272 271 270 266 267 269 269 269 269 269 269 267 267 266 265 263 268 276 277 277 277
283 282 279 279 279 281 282 282 281 279 279 279 279 276 276 275 274 274 275 274 273 272 269 269 268 262 262 263 265 265 264 267 267 265 265 264 264 264 263 262 261 263 270 273
280 279 279 279 279 278 278 277 275 276 276 275 274 275 273 273 273 272 270 267 268 267 263 264 262 259 259 261 263 263 264 263 264 265 263 264 265 263 262 261 261 260 260 265
277 276 276 277 276 275 274 273 274 275 274 274 272 271 272 271 269 264 263 262 264 262 259 261 259 257 257 259 260 260 261 264 263 263 262 262 263 261 261 260 259 259 259 260
274 274 273 273 274 275 274 274 274 274 272 271 270 268 268 265 262 259 258 259 260 259 258 257 255 254 256 257 260 260 260 260 262 261 261 261 260 259 259 259 259 257 257 259
267 269 270 270 271 272 272 269 268 268 266 265 265 266 264 262 262 258 256 256 256 255 254 253 253 253 254 255 257 260 261 260 259 258 256 257 257 259 259 257 255 253 255 256
262 263 264 264 263 264 263 262 262 262 262 262 262 260 259 259 257 255 255 256 255 254 252 252 263 254 255 259 260 259 258 257 255 254 256 257 255 253 253 253 251 250 252 254
259 260 260 259 258 257 258 259 258 258 257 257 257 256 255 254 253 255 253 249 248 250 250 251 254 255 254 258 258 253 253 254 256 255 254 253 252 251 251 252 250 250 248 249
255 256 256 256 255 254 255 255 255 254 254 255 255 253 252 251 252 250 252 252 249 249 250 253 252 252 252 252 254 252 252 252 252 252 250 250 250 249 250 248 248 250 250 250
252 252 253 253 252 252 252 252 253 254 253 253 252 252 252 251 251 252 250 252 250 255 252 252 252 254 253 257 253 251 251 251 250 250 249 248 248 249 249 249 249 250 250 252
249 250 251 251 250 249 250 252 252 252 252 252 253 253 254 254 254 254 252 251 250 252 253 253 255 256 258 252 252 251 251 251 250 250 249 249 250 249 250 251 250 250 250 252
247 248 248 249 251 253 252 251 251 251 252 252 251 252 253 253 253 253 254 254 256 255 253 253 255 261 255 251 251 250 250 249 250 249 249 252 248 248 249 250 250 250 251 252
248 249 251 252 253 252 250 249 250 250 251 252 251 253 254 256 255 254 255 256 258 256 256 258 260 259 251 249 249 249 249 249 248 247 248 248 248 249 250 251 251 250 250 250
250 251 250 251 252 252 251 252 251 250 252 253 254 255 256 256 257 257 256 256 255 256 255 254 253 251 250 250 249 250 251 250 252 251 252 253 253 253 254 254 251 251 252 251
253 254 253 253 254 254 252 252 250 249 250 250 252 254 255 255 256 256 256 255 255 254 254 252 253 253 250 250 250 251 251 251 253 252 250 252 254 255 255 255 254 254 254 254

GFSNGP_sfc_thetae_039.txt.gz
Theta_e
292 291 290 288 287 288 287 289 285 289 289 293 294 291 292 291 290 289 289 289 289 288 287 286 285 285 284 284 284 283 282 281 281 280 280 280 280 279 279 279 277 277 276 276
288 289 290 288 289 289 289 289 289 290 290 294 296 296 291 291 291 290 290 290 290 290 288 286 285 285 285 284 284 283 282 281 280 280 280 280 280 280 279 278 277 276 275 275
285 289 287 284 289 291 290 291 290 286 292 293 295 295 291 291 291 291 292 291 291 290 289 288 286 286 285 285 284 282 281 280 280 280 280 280 280 279 278 277 276 275 274 274
285 286 279 289 293 295 293 294 293 292 294 294 296 297 294 294 293 292 292 292 291 291 290 288 288 287 287 285 283 282 281 281 280 281 280 279 279 277 276 275 275 274 274 274
283 284 287 290 287 289 288 290 296 295 296 297 293 290 290 291 294 295 294 294 293 293 291 289 287 286 285 283 283 282 281 281 281 281 280 278 277 276 275 275 273 273 273 272
283 282 280 289 285 288 293 287 295 296 296 296 290 289 294 291 291 290 291 292 290 290 289 290 288 286 284 283 282 282 282 282 281 280 279 278 278 275 272 273 275 274 274 272
285 284 286 283 281 289 285 285 278 283 289 289 291 295 290 289 289 289 289 288 288 289 290 289 286 285 284 282 282 283 281 279 278 279 278 278 276 273 271 273 272 270 271 270
286 284 282 283 284 288 285 280 281 282 282 283 284 283 285 286 285 285 286 286 286 285 284 284 284 286 283 282 282 278 278 277 277 276 277 275 274 270 270 271 271 269 268 267
287 285 281 282 282 283 283 282 282 284 282 282 282 282 283 283 283 283 284 283 283 283 281 280 280 283 282 281 277 276 276 275 274 272 273 273 273 270 270 270 271 270 269 269
282 280 281 283 285 285 285 283 282 284 284 283 282 282 282 282 281 281 280 279 277 279 278 278 276 277 275 276 275 274 273 271 269 271 268 267 271 271 271 269 269 268 267 268
278 280 281 284 285 286 287 285 282 281 282 282 282 280 280 280 279 280 279 278 278 278 277 276 274 273 271 274 274 273 270 270 269 269 270 268 268 268 269 266 270 266 267 265
281 283 284 285 287 288 286 285 282 281 280 281 280 280 280 279 279 279 278 275 275 273 274 272 271 270 269 272 273 272 270 269 269 269 267 267 266 264 275 274 276 277 276 269
285 287 286 284 285 286 285 282 281 281 281 281 280 279 278 278 277 276 274 273 273 273 272 272 271 270 265 268 271 270 270 268 268 268 267 266 264 265 264 267 277 278 278 278
283 284 282 280 281 283 283 282 281 279 279 279 278 276 276 275 274 275 274 272 273 271 269 270 268 264 263 263 266 265 265 268 267 267 266 264 264 263 262 262 262 263 270 273
278 279 279 279 279 278 278 277 277 277 276 275 274 275 274 274 273 272 269 269 269 267 265 265 263 259 259 261 265 263 264 263 263 262 261 262 262 262 261 261 261 262 264 267
275 276 276 276 276 275 275 274 274 274 273 273 272 272 272 271 267 264 263 264 267 264 259 261 260 258 257 261 261 261 262 263 262 261 260 260 261 260 262 262 261 260 258 258
271 271 271 271 273 273 271 272 273 272 271 271 269 268 267 264 262 260 259 259 259 257 257 258 256 254 255 257 260 259 259 259 260 258 258 259 261 261 261 259 257 254 254 257
265 267 267 267 267 269 267 266 265 265 265 265 265 265 264 263 261 257 256 255 256 255 254 253 252 254 256 256 257 257 257 256 256 258 259 260 258 258 257 254 252 252 253 254
261 261 262 261 261 262 261 261 260 260 261 261 261 259 258 257 257 255 253 255 255 255 254 252 263 253 253 258 256 257 258 258 256 255 256 256 254 251 250 249 249 248 250 252
257 258 258 256 256 256 256 256 256 256 255 256 256 256 254 253 253 253 252 249 247 251 248 250 250 251 254 259 259 258 256 254 253 251 251 250 249 248 248 250 249 248 246 247
253 254 254 254 253 253 252 253 253 253 252 253 254 252 251 249 249 248 250 252 250 247 250 255 254 254 254 255 254 250 249 250 250 249 248 248 247 247 248 246 246 248 249 248
250 251 252 252 252 251 249 249 251 253 253 253 252 252 252 249 249 251 248 251 252 256 254 254 253 252 252 255 251 250 250 250 248 247 247 246 246 247 247 248 248 250 250 249
250 250 252 252 250 247 249 250 250 251 252 251 252 251 253 252 251 253 252 251 250 254 253 253 255 258 259 256 254 251 250 249 249 249 248 247 248 247 248 249 249 249 249 249
249 250 250 250 250 252 251 248 248 247 247 249 249 249 251 252 252 251 252 254 256 254 254 255 258 261 258 254 252 252 252 250 249 248 248 250 246 246 246 248 249 250 250 251
249 249 250 251 251 249 246 246 248 248 249 248 249 250 249 251 250 250 251 254 259 256 256 258 261 260 255 252 253 250 249 247 247 246 246 246 247 247 247 248 249 250 252 252
252 251 250 250 249 250 249 251 251 250 250 250 250 250 250 251 252 252 252 254 254 256 255 256 254 254 253 253 251 250 251 251 252 251 249 249 249 249 249 250 250 252 253 254
253 252 249 250 251 251 249 249 249 248 246 245 247 247 248 249 250 252 254 254 254 254 256 254 254 256 254 254 253 252 252 251 252 251 249 249 249 249 250 250 250 252 254 254

GFSNGP_sfc_thetae_042.txt.gz
Theta_e
292 290 288 286 288 288 287 289 285 290 290 294 294 291 292 292 290 288 287 287 287 287 286 285 285 285 285 284 284 283 282 281 281 281 281 280 280 280 280 279 279 278 277 277
288 291 288 287 287 288 289 290 290 291 290 294 293 293 291 291 290 289 289 289 289 289 287 286 285 285 285 284 283 283 282 281 281 281 280 280 280 280 279 279 277 277 277 276
285 289 286 284 289 288 288 291 290 286 292 292 293 294 294 292 291 291 291 291 290 289 288 288 286 286 285 284 284 282 282 281 281 281 281 280 280 280 279 278 278 277 276 275
286 286 280 289 294 296 293 293 292 292 294 294 294 296 296 294 291 292 293 293 291 291 290 289 288 287 286 284 283 282 282 282 282 281 281 280 279 279 278 278 277 276 275 275
284 284 286 289 287 289 289 291 297 295 297 298 297 292 295 293 296 297 295 295 294 293 291 289 287 286 284 282 282 282 281 281 282 281 281 279 279 279 278 278 276 275 275 273
283 282 280 289 288 293 292 287 295 296 297 297 292 289 295 300 293 292 293 291 289 288 286 287 286 285 283 282 282 281 282 282 282 282 282 280 280 279 278 278 277 276 275 274
285 284 285 285 282 292 285 286 280 287 292 291 293 297 290 288 288 287 287 287 287 288 287 286 285 284 283 282 282 283 283 282 282 282 282 281 281 279 276 276 274 273 273 271
285 283 281 282 284 288 285 281 281 282 283 284 286 285 285 285 284 285 286 286 286 286 285 285 284 285 283 283 284 284 283 281 280 281 281 280 278 275 274 275 274 271 269 266
288 286 281 282 281 283 282 279 281 283 282 283 283 282 283 282 283 283 284 283 284 285 283 284 285 286 284 283 280 279 280 280 280 278 278 277 276 273 272 272 273 271 270 271
285 283 281 282 285 286 283 282 282 282 284 283 283 282 282 281 281 282 280 281 280 283 282 279 280 281 282 280 279 280 280 277 275 276 273 273 274 273 273 271 271 271 270 271
278 281 281 283 285 287 285 285 284 283 282 282 281 281 282 281 280 279 279 278 280 280 280 278 277 276 275 276 277 278 276 273 273 273 272 270 269 270 271 267 272 269 269 268
280 284 286 285 287 288 286 285 283 281 281 281 281 281 280 279 279 279 278 276 276 274 275 272 274 274 274 275 276 274 272 271 270 270 268 267 267 264 275 274 277 278 276 269
284 285 283 282 286 287 286 285 282 280 281 280 279 279 279 278 277 277 275 275 274 273 273 272 272 270 266 267 271 271 271 269 268 267 267 266 264 267 265 268 278 278 278 279
282 285 284 279 281 284 285 283 281 279 278 278 278 276 277 276 275 275 274 272 273 272 270 269 268 265 263 263 265 264 264 267 267 266 266 265 265 264 263 262 262 263 271 274
277 279 279 278 278 277 278 278 278 277 276 275 274 275 275 275 273 270 268 268 269 267 265 266 264 261 260 261 263 262 264 263 262 262 263 264 262 261 261 261 260 258 263 267
274 275 275 275 275 274 275 275 275 274 273 271 272 271 270 268 265 263 262 263 266 262 258 261 260 258 258 259 261 261 261 263 262 262 262 262 262 261 260 260 261 262 261 261
270 271 270 270 271 270 269 269 270 270 269 268 267 267 265 263 261 259 257 257 257 256 256 257 255 256 257 259 260 259 260 260 260 259 259 258 258 259 261 261 260 256 254 256
266 266 266 266 268 268 266 264 264 264 263 264 264 264 263 262 259 256 254 255 256 255 254 253 252 254 255 255 256 256 257 256 256 256 257 259 260 260 259 257 253 253 253 254
260 261 261 261 262 262 261 260 259 259 260 260 260 257 256 255 254 250 251 254 253 254 253 253 263 254 254 257 255 256 256 256 256 257 258 257 255 253 251 251 250 249 249 251
257 257 257 256 256 256 256 255 255 255 254 255 254 254 252 250 249 250 250 247 246 249 246 248 250 252 253 256 258 256 257 257 256 253 252 251 251 249 250 251 250 248 245 245
253 254 254 254 253 252 252 252 252 252 251 252 253 251 250 245 247 247 251 252 250 247 249 252 251 252 253 255 255 253 253 253 253 252 250 250 251 248 249 247 247 247 247 246
250 251 252 252 251 250 249 250 251 252 252 251 250 250 251 248 249 250 246 249 249 254 251 251 251 254 255 257 253 252 251 252 253 253 253 251 249 250 250 248 247 247 246 246
249 249 251 250 249 247 248 249 250 250 250 249 249 249 251 250 250 252 251 249 248 252 251 251 254 257 259 254 252 253 253 253 254 254 253 250 253 248 247 247 247 247 247 248
247 248 247 246 247 251 250 246 246 246 246 247 246 246 249 250 250 250 252 253 254 253 253 253 256 262 258 256 257 256 255 253 254 252 252 253 247 245 245 246 248 249 248 249
247 246 247 248 250 248 246 245 248 247 247 247 248 248 248 249 249 249 248 251 257 254 253 256 262 261 253 253 254 256 256 255 252 252 251 249 246 246 247 247 247 248 248 249
248 249 249 247 246 247 246 248 248 246 246 248 247 247 247 248 249 249 250 253 251 253 251 252 252 254 253 254 253 254 254 254 254 254 252 251 250 249 248 249 249 249 249 249
251 250 249 250 250 248 247 247 248 246 245 244 246 246 246 247 248 250 251 251 251 251 250 250 252 254 254 254 254 254 254 253 254 254 252 252 251 249 250 250 249 249 250 250

GFSNGP_sfc_thetae_045.txt.gz
Theta_e
291 291 287 285 285 287 287 289 285 289 289 294 294 292 292 294 291 289 288 286 286 286 286 286 286 286 287 287 285 284 283 282 282 282 282 281 280 280 280 279 279 279 278 278
287 290 290 286 286 287 288 290 290 291 290 294 293 292 291 293 292 290 289 288 288 288 287 286 286 286 286 286 284 284 283 283 282 281 281 281 280 280 280 279 279 279 278 278
284 288 288 283 288 289 288 290 290 287 292 292 295 295 295 296 291 291 292 292 290 289 288 288 287 287 286 286 284 283 282 282 281 281 281 281 280 280 279 279 279 278 278 277
285 286 279 289 295 294 292 292 292 292 295 296 296 298 297 293 293 293 293 292 292 291 290 289 288 287 286 285 283 283 282 281 281 281 281 280 280 279 279 279 278 278 277 277
284 284 288 288 289 288 288 290 296 294 295 296 297 292 296 294 296 297 295 294 295 294 292 289 287 286 285 282 282 282 281 281 281 282 281 280 280 279 279 278 278 277 278 277
283 282 280 289 291 294 292 287 296 295 296 296 294 289 296 295 293 293 293 292 291 289 287 287 285 285 283 281 282 281 282 282 282 282 282 280 280 279 279 279 279 278 278 278
286 284 285 286 283 291 285 286 281 285 291 293 293 295 288 288 289 286 286 285 285 285 285 284 284 283 281 281 281 283 282 282 281 282 282 281 281 280 279 279 278 277 277 277
286 283 282 283 286 287 285 281 281 282 282 284 287 287 285 284 284 285 284 284 284 283 281 282 282 282 281 281 281 282 282 281 282 282 282 282 282 280 279 279 278 277 275 274
286 286 284 283 283 283 282 279 280 281 281 282 282 282 283 282 282 283 283 283 283 282 281 281 280 282 281 282 283 283 283 283 283 283 283 283 282 281 278 278 277 276 274 274
287 284 280 282 284 284 282 281 281 281 282 283 283 284 284 283 282 282 279 279 279 283 282 281 282 283 284 283 283 284 283 281 281 281 279 279 280 277 277 275 275 275 273 274
284 279 281 281 283 285 285 285 285 282 282 282 283 283 282 281 279 280 280 280 281 281 279 277 278 278 278 279 281 281 279 276 277 277 276 274 273 274 275 271 276 273 272 270
283 284 285 284 286 287 286 286 286 282 281 280 281 280 280 279 279 278 278 276 277 276 276 274 275 274 274 275 278 277 274 274 274 273 272 272 271 268 276 276 279 279 277 271
284 284 282 284 287 288 287 286 282 281 281 279 278 279 278 277 276 275 274 274 273 272 272 272 271 268 267 269 272 274 274 272 271 270 270 269 268 270 268 270 278 279 279 279
281 285 281 280 284 287 286 283 280 278 277 277 276 274 275 274 273 273 271 270 271 270 268 267 266 263 263 264 267 267 268 268 268 266 266 265 265 266 266 266 266 263 274 276
277 279 280 278 278 279 280 280 278 277 276 275 274 275 275 273 271 269 268 269 269 267 266 266 265 262 262 264 267 265 266 264 263 263 262 263 263 262 262 262 260 259 261 265
276 276 276 275 275 275 276 276 275 274 273 272 271 269 267 266 264 262 261 263 266 261 261 262 260 259 260 262 263 263 263 264 262 261 260 261 261 261 260 260 259 260 259 259
273 272 272 272 272 270 269 270 270 270 268 267 267 266 264 262 261 259 257 256 256 256 255 256 255 256 257 258 259 259 259 259 260 259 258 258 258 259 259 259 258 256 259 261
267 268 268 270 270 268 266 266 266 265 263 264 264 263 262 260 257 255 254 253 255 255 254 253 252 254 255 255 255 256 256 255 256 256 257 257 256 257 256 257 257 258 257 258
262 263 263 263 264 263 261 261 260 260 260 261 260 257 256 255 254 251 251 254 253 254 252 251 262 255 256 259 255 256 256 256 255 254 255 255 254 252 253 253 253 253 252 253
258 258 258 258 257 257 257 256 256 255 255 256 255 254 252 249 247 250 250 248 246 249 246 247 250 252 252 254 257 254 255 255 255 253 252 251 251 250 252 252 250 248 246 246
254 255 255 255 253 253 252 252 254 253 251 253 254 252 250 244 245 246 250 253 250 247 248 251 251 252 252 253 253 252 252 253 252 251 250 251 251 249 251 247 246 248 246 246
251 252 252 252 251 250 250 250 252 252 252 251 250 250 250 249 249 250 245 250 249 252 250 250 250 253 253 255 251 250 250 251 250 249 249 248 250 251 248 249 248 247 247 245
250 251 251 250 249 247 249 249 249 250 251 250 250 250 250 250 249 252 252 249 248 251 250 250 254 258 258 252 251 250 251 252 252 254 253 252 253 250 250 251 251 250 250 250
249 249 247 245 247 251 249 246 247 247 248 249 248 247 250 251 251 249 250 251 252 252 252 252 255 262 255 250 251 251 250 250 252 251 251 254 251 252 251 252 252 252 251 250
250 249 250 251 251 248 247 244 249 248 249 248 248 248 248 248 249 248 247 249 255 251 251 254 261 259 250 248 249 250 250 250 249 250 252 252 251 251 251 251 251 251 250 250
250 249 249 248 247 248 248 249 248 247 247 248 248 246 247 247 249 249 249 251 250 252 250 250 249 249 249 249 248 249 251 250 252 251 251 251 252 252 251 252 251 251 251 250
251 252 251 251 250 249 247 247 248 246 244 242 245 244 244 246 248 250 250 250 249 249 248 247 249 251 249 249 250 251 251 251 252 251 249 250 251 252 251 251 252 251 251 251

GFSNGP_sfc_thetae_048.txt.gz
Theta_e
290 288 285 285 284 286 287 288 283 288 288 292 294 294 295 294 292 291 290 288 287 287 286 285 286 287 288 289 288 286 285 284 284 283 283 283 282 281 281 280 280 280 279 279
286 289 288 286 285 287 287 289 289 289 289 296 297 293 291 292 293 293 291 290 291 289 286 286 286 287 288 288 287 286 285 284 284 282 282 282 281 281 280 279 279 279 278 278
284 288 287 284 287 289 289 291 290 285 291 296 295 295 296 296 293 293 293 295 292 290 289 289 287 288 287 287 286 284 285 284 283 282 281 281 281 280 280 279 279 278 278 278
285 284 278 289 292 293 291 292 293 292 294 296 296 297 297 295 294 295 294 293 293 293 291 290 289 287 287 286 284 284 284 283 282 282 282 281 280 280 280 279 279 278 278 278
284 283 287 288 288 288 287 289 294 293 294 295 297 292 296 295 295 296 296 294 294 293 292 289 287 286 284 283 283 282 282 282 282 282 281 280 280 280 279 279 279 279 279 278
285 281 279 289 293 292 291 285 295 295 295 295 293 288 294 292 290 289 289 289 289 289 288 287 285 283 283 281 281 281 282 281 281 282 282 281 281 280 280 280 279 279 279 279
285 283 283 286 283 291 284 286 281 285 291 287 292 295 287 286 286 285 285 285 284 284 284 283 282 282 280 279 280 280 280 280 280 281 282 282 281 280 280 279 279 278 278 278
286 283 281 285 285 287 287 281 282 283 283 284 286 286 283 283 284 284 284 283 283 281 280 280 280 280 278 278 279 279 279 279 280 281 281 281 281 280 280 279 278 278 277 277
286 286 290 285 288 286 284 282 282 283 281 282 283 282 282 283 282 282 283 282 281 279 279 279 278 279 278 277 278 279 279 279 281 281 282 282 281 280 279 280 279 278 277 277
287 287 286 286 284 284 283 283 283 283 283 283 283 283 283 282 282 281 278 278 278 281 279 279 281 283 283 283 283 284 283 283 282 282 282 282 283 282 281 279 278 278 276 277
284 284 282 284 282 284 283 284 283 283 282 283 285 283 283 281 281 280 280 280 282 281 279 277 277 278 280 281 284 283 282 279 281 281 281 279 278 279 279 276 280 278 278 277
285 285 287 287 285 285 286 286 285 282 281 280 281 281 280 279 279 279 279 278 278 276 275 273 272 271 271 274 278 278 275 276 276 276 275 275 274 272 278 278 281 280 279 275
285 285 284 284 285 287 286 286 282 281 281 280 279 280 278 276 275 275 274 274 273 272 270 269 267 265 265 267 272 273 274 273 272 272 272 271 271 271 271 275 281 280 279 278
282 283 282 284 285 287 286 281 279 277 277 277 277 276 275 273 272 271 270 269 270 269 267 265 264 263 264 266 268 269 269 269 269 268 269 268 269 269 270 271 269 266 278 278
277 278 280 280 284 282 281 280 278 276 275 274 275 274 273 270 268 267 267 268 267 265 263 263 262 260 261 264 266 267 267 266 266 265 266 266 266 265 265 264 264 263 264 267
276 277 277 278 278 279 279 278 276 274 273 271 270 268 267 265 263 261 261 264 264 260 259 260 259 258 259 261 263 263 263 264 262 262 261 261 262 261 260 260 260 260 258 256
274 274 274 274 274 274 273 273 274 271 270 268 267 266 265 262 260 258 257 258 258 257 257 257 255 254 256 258 260 259 259 260 260 259 257 257 257 258 259 258 258 256 255 258
268 269 270 273 271 270 268 268 268 268 267 266 265 264 263 262 258 256 255 255 256 255 253 254 254 254 255 255 256 256 257 256 256 255 256 257 256 257 256 257 256 258 258 260
264 265 264 264 265 265 264 262 262 263 263 263 262 259 258 257 255 253 251 254 254 256 252 250 262 255 256 259 255 256 256 256 255 254 255 255 254 254 257 257 256 255 255 256
260 260 260 259 259 259 258 257 258 257 257 258 257 256 253 251 250 251 251 248 246 248 246 246 250 252 252 253 256 254 255 254 254 252 253 253 252 251 252 253 254 252 250 250
256 257 257 256 255 255 255 255 256 254 254 255 255 252 250 249 246 246 251 253 250 246 247 250 251 251 251 252 253 251 251 252 251 250 249 249 249 249 250 248 249 251 251 251
254 255 255 254 254 252 252 253 253 253 253 252 251 251 251 249 249 249 245 249 249 251 249 249 250 252 252 254 250 249 249 249 248 247 247 246 247 249 249 251 252 253 252 250
252 253 253 253 251 250 250 250 250 251 251 250 250 250 250 249 249 252 251 250 247 250 249 250 254 257 256 250 248 247 248 248 249 249 248 247 248 248 249 249 250 252 251 251
251 251 250 250 251 251 249 246 248 247 249 248 247 245 248 251 251 248 249 250 252 251 250 254 257 261 252 248 248 248 248 247 248 247 247 250 246 247 247 248 248 249 251 252
251 251 251 251 250 248 247 245 250 248 249 249 248 248 247 248 250 247 246 249 254 251 250 253 259 256 248 246 247 248 248 247 246 245 246 246 246 246 247 247 248 249 249 250
251 250 250 250 250 251 251 252 250 249 250 251 249 247 247 248 249 249 249 250 250 251 249 249 248 248 248 248 247 248 249 249 251 250 249 249 248 248 248 249 249 250 250 250
252 253 252 251 251 251 251 251 251 248 246 245 247 244 245 247 248 249 250 249 249 249 249 247 249 250 248 248 249 250 250 250 252 251 250 249 249 249 250 250 250 249 251 251

GFSNGP_sfc_thetae_051.txt.gz
Theta_e
289 289 285 285 284 285 286 288 284 288 288 292 294 292 295 295 294 293 294 291 291 291 290 287 287 288 290 291 291 290 289 288 288 287 286 286 285 284 284 282 282 281 281 280
286 289 289 285 285 286 287 288 288 289 288 296 295 294 291 293 293 294 293 293 293 292 290 289 288 288 289 290 290 289 289 288 288 285 284 285 284 283 282 281 281 280 280 280
284 287 285 283 287 288 289 289 288 285 291 295 294 295 296 295 292 295 295 296 296 294 292 291 290 289 288 289 289 286 287 287 286 284 283 283 283 282 281 280 280 280 280 279
284 284 278 288 292 293 291 292 293 292 293 295 296 299 298 296 295 295 294 294 295 296 294 292 290 288 288 287 287 285 286 285 284 283 283 282 281 281 281 280 280 279 279 279
282 283 286 284 287 288 287 289 294 294 295 297 297 292 296 297 295 298 296 294 294 293 292 292 290 287 285 284 284 284 284 284 283 283 281 281 280 281 281 280 280 280 280 279
284 281 278 286 292 292 290 285 295 294 294 295 293 288 294 291 289 289 289 288 288 287 287 288 286 284 283 282 281 281 282 282 282 282 281 280 281 280 281 281 280 279 279 279
283 282 285 287 283 290 283 285 282 291 294 294 292 295 289 286 287 286 286 285 284 283 283 283 283 282 281 280 280 280 280 280 280 281 280 280 280 280 280 279 279 279 279 279
284 281 279 284 285 286 288 283 282 284 287 287 289 288 286 285 285 284 284 284 282 281 280 280 281 280 279 279 279 278 278 278 278 279 280 281 280 280 280 280 279 278 278 278
286 285 288 290 290 293 288 285 284 285 286 284 284 284 284 284 283 282 282 281 280 279 279 278 277 278 278 277 277 277 276 276 278 279 280 281 280 280 279 280 279 279 279 279
283 285 288 290 293 294 286 285 284 285 284 283 284 284 283 283 282 281 278 279 279 280 280 280 280 280 280 281 281 282 281 280 280 280 280 281 281 281 281 281 281 280 279 280
285 285 285 289 287 289 284 284 283 284 284 283 284 283 282 281 279 279 281 281 282 280 278 276 277 277 279 282 285 284 282 281 282 282 281 281 280 282 282 282 284 282 280 280
282 283 286 286 285 286 285 284 284 283 280 280 283 283 281 279 279 280 279 279 277 274 273 270 270 269 269 273 281 281 278 279 279 279 279 278 277 275 281 281 283 284 282 280
287 284 284 284 284 285 285 286 282 283 283 283 280 280 278 276 276 276 275 274 272 270 268 267 266 266 266 267 272 272 273 274 275 275 274 274 274 274 273 277 282 280 280 280
282 281 282 283 285 286 285 281 280 278 278 279 278 276 275 272 272 271 269 269 269 267 266 265 265 263 264 267 270 268 268 268 268 268 269 269 270 270 272 275 275 275 279 279
279 279 280 279 283 282 280 279 278 276 275 274 275 274 272 270 269 268 268 267 266 265 264 264 264 262 262 264 266 265 267 265 265 266 266 267 267 267 267 268 267 266 269 271
275 274 275 279 281 279 278 277 275 273 273 271 270 268 267 265 263 262 263 265 266 261 260 261 261 260 261 262 264 264 265 264 263 263 264 264 264 264 264 264 264 263 263 262
271 275 276 277 278 277 275 276 275 273 271 270 268 266 265 263 262 261 259 259 259 258 257 258 258 258 259 261 261 260 260 260 261 261 260 260 260 260 261 261 261 260 260 261
268 269 271 274 274 272 271 271 270 269 268 267 267 266 265 265 261 259 259 258 258 256 255 256 257 258 258 258 258 259 259 257 258 257 258 258 257 258 258 258 258 258 259 263
265 265 265 265 266 266 265 265 265 265 265 265 264 261 261 260 259 257 258 258 258 258 255 253 263 258 258 260 257 258 259 257 256 255 256 256 256 255 256 257 256 256 257 257
261 262 261 260 260 262 260 260 260 259 260 260 259 258 255 253 254 253 253 250 249 251 250 251 253 253 253 254 257 255 256 255 255 253 253 253 253 252 253 253 254 253 252 252
258 258 258 257 256 256 256 257 258 256 256 257 254 254 252 251 251 249 255 254 252 250 251 253 253 253 252 253 253 251 251 252 251 250 249 249 250 249 251 248 249 251 250 251
256 256 256 255 254 254 254 255 255 255 254 253 253 253 253 251 252 251 249 251 248 251 250 251 251 252 252 254 251 250 249 249 246 247 247 246 247 248 248 249 248 250 250 250
254 254 254 254 253 252 253 253 253 253 252 252 252 252 251 251 251 255 253 251 247 251 251 250 255 257 256 251 248 247 247 248 248 248 247 247 248 247 248 249 249 250 248 249
253 253 253 254 255 254 252 251 251 251 250 250 249 249 253 253 252 249 250 251 251 251 250 255 260 259 252 247 248 248 247 247 248 246 247 250 246 246 246 248 249 249 249 250
253 254 254 254 253 251 252 253 252 252 252 251 250 250 250 251 252 249 248 249 255 250 250 253 258 255 247 245 246 247 247 246 246 245 246 246 246 246 247 247 248 249 248 249
252 252 251 252 253 254 254 254 252 252 253 250 249 249 249 250 250 249 249 250 249 250 248 248 247 247 247 247 247 247 249 249 250 250 250 251 250 250 249 249 249 250 250 250
253 254 253 252 252 252 253 253 252 250 250 251 248 248 248 249 249 249 249 249 248 248 247 245 247 249 247 247 248 249 249 250 251 251 249 249 249 250 250 251 251 250 250 250

GFSNGP_sfc_thetae_057.txt.gz
Theta_e
292 294 293 292 292 292 290 291 287 291 292 296 299 300 302 304 304 304 304 304 305 306 307 308 308 306 303 303 303 303 302 301 301 301 302 302 300 299 297 294 292 290 287 286
287 293 294 290 293 293 293 292 292 293 293 300 302 303 303 303 303 303 303 304 305 306 306 306 307 306 304 302 302 302 301 300 300 298 297 296 296 293 290 289 288 286 285 284
283 289 288 284 289 293 294 296 295 290 296 301 300 300 301 303 304 303 304 304 305 305 306 306 307 306 304 303 301 298 297 294 293 293 292 292 291 289 288 287 286 284 284 283
283 285 278 290 296 296 294 296 297 297 298 299 300 302 303 305 304 304 304 305 306 307 307 308 306 303 302 298 296 294 292 290 290 290 289 289 288 287 287 287 284 284 283 282
280 280 285 288 292 292 292 292 298 297 299 301 302 302 302 305 305 305 306 306 306 302 300 300 300 298 294 292 292 292 290 290 290 289 287 287 286 286 286 285 284 283 283 282
282 278 276 287 294 297 296 285 297 295 296 298 300 294 298 304 303 301 300 298 296 295 295 296 294 293 290 289 289 289 289 289 289 288 286 285 286 285 285 285 283 282 281 282
280 279 283 291 293 296 283 287 291 293 293 294 292 298 299 300 299 297 295 293 292 292 291 289 289 288 287 287 286 286 286 286 285 286 285 285 285 285 284 282 281 281 280 280
282 279 276 292 292 288 290 292 292 293 293 293 294 295 295 296 294 294 293 293 290 290 288 287 286 287 285 283 284 284 284 283 283 283 284 284 283 283 282 281 280 279 279 279
285 285 291 294 293 295 294 291 291 292 293 294 294 293 294 295 292 290 288 288 286 286 284 284 284 285 283 282 283 282 281 280 282 283 283 283 283 281 282 281 280 279 279 279
283 286 289 293 295 295 294 292 295 295 294 295 293 293 292 293 294 290 285 284 283 284 282 281 282 282 282 282 282 281 281 281 282 282 282 283 283 283 283 282 281 281 280 280
283 286 288 289 291 293 293 294 295 296 296 295 294 293 292 291 288 286 284 284 284 283 281 279 281 280 282 283 283 282 282 282 282 283 283 283 283 284 283 284 285 283 284 284
280 286 285 287 291 292 292 293 294 293 292 293 288 288 289 288 286 285 283 282 280 279 278 277 278 278 279 281 283 283 282 283 283 282 282 281 281 281 286 286 286 286 287 286
285 288 289 290 291 293 291 291 291 291 290 289 288 285 285 283 282 281 279 279 277 276 275 275 275 275 275 278 285 285 283 282 282 281 281 281 280 280 278 281 283 283 283 283
289 289 287 289 287 290 290 290 288 287 286 285 284 282 280 279 277 276 275 274 274 273 273 273 272 271 272 278 282 283 282 283 283 282 282 281 281 281 280 279 278 278 280 280
286 288 287 288 289 286 286 285 283 284 283 280 280 278 279 277 275 273 271 271 271 270 270 270 269 267 269 274 276 278 279 278 279 279 280 279 280 280 281 279 278 276 276 277
279 280 281 281 283 283 284 284 282 284 281 279 276 277 275 273 270 269 268 269 272 268 267 266 265 265 268 273 275 274 273 274 276 276 276 276 276 276 276 277 276 277 277 273
272 277 276 275 277 279 280 283 283 283 281 275 273 271 269 267 265 264 263 264 264 263 264 264 264 265 267 269 272 272 272 271 273 274 273 274 275 274 274 275 274 274 271 270
267 267 269 270 271 271 273 279 278 278 275 273 270 268 267 267 264 263 262 262 262 260 260 264 265 266 265 267 269 270 270 270 269 269 270 268 269 270 270 270 270 269 268 269
263 264 264 265 266 265 268 272 272 272 270 269 269 267 265 264 264 264 265 264 263 261 258 261 266 263 264 268 268 269 269 268 267 267 267 267 267 266 266 267 267 267 267 265
260 261 262 261 260 261 264 264 266 265 266 265 264 263 261 260 260 259 258 255 256 257 260 261 262 262 262 263 267 266 266 266 265 264 263 263 264 263 264 261 262 263 263 262
258 259 259 259 259 258 260 262 263 262 263 264 262 260 259 259 260 260 260 258 257 259 260 260 261 261 261 263 263 263 263 262 261 261 261 262 262 262 261 261 260 261 260 260
257 257 257 257 257 257 258 260 260 260 259 259 259 258 258 257 257 256 258 258 259 261 262 261 260 259 261 263 262 262 262 261 261 261 261 260 260 260 260 260 259 260 259 259
256 256 256 256 255 255 256 256 258 259 259 259 259 259 259 259 260 259 257 259 261 262 262 261 261 261 261 261 261 261 260 260 260 260 260 259 259 259 259 259 258 258 258 258
256 256 256 257 257 255 254 255 255 255 255 256 257 259 258 257 257 259 258 258 259 260 260 260 260 260 259 259 259 259 259 259 259 259 258 256 258 257 257 257 256 257 257 256
256 256 257 256 255 255 255 256 256 256 255 255 256 256 257 257 257 257 258 257 259 258 258 258 259 259 258 258 258 258 258 258 257 256 256 256 256 255 256 256 255 256 255 255
255 254 255 256 256 257 257 257 256 256 255 253 254 255 256 256 257 257 256 256 256 256 256 256 255 256 256 256 256 256 256 256 256 256 255 255 255 255 255 255 255 256 256 255
255 256 256 255 255 255 255 256 255 254 254 253 252 253 254 255 255 255 255 255 255 255 254 254 255 254 254 254 254 254 254 254 254 254 253 253 254 254 254 254 254 254 255 255

GFSNGP_sfc_thetae_060.txt.gz
Theta_e
290 291 292 291 290 290 289 288 284 287 287 292 295 295 296 298 299 299 299 299 299 300 300 299 300 300 299 298 298 298 298 298 299 296 297 297 296 294 293 291 290 288 286 285
285 290 291 288 291 290 290 290 290 290 289 296 298 298 298 298 298 298 298 299 300 300 300 300 300 301 301 299 297 297 297 297 298 294 292 291 291 291 289 288 287 285 284 285
281 285 286 283 286 289 290 293 292 287 292 295 295 297 298 299 298 300 301 302 301 301 300 300 300 300 299 298 296 293 292 288 287 288 288 289 289 288 286 285 284 283 283 284
281 283 276 285 291 292 290 292 294 295 296 297 298 299 300 299 299 301 301 301 301 301 300 298 297 296 296 291 290 290 286 285 284 287 285 284 285 285 284 284 282 281 281 283
279 277 282 284 287 286 285 287 293 294 296 297 296 295 297 298 297 296 296 296 295 294 294 293 293 291 288 287 287 288 287 286 285 283 282 283 281 281 281 281 279 278 283 282
278 267 264 280 286 291 291 281 291 292 292 291 292 287 292 294 295 294 294 293 292 290 290 291 288 288 286 286 284 285 285 286 285 282 280 280 281 280 279 278 282 282 282 282
279 277 280 284 287 290 277 280 284 288 289 289 288 291 294 295 294 293 291 291 290 288 288 286 286 284 285 284 281 282 281 281 280 280 279 280 279 278 277 277 281 280 280 280
274 275 274 285 285 283 286 285 285 286 288 288 289 291 291 291 290 289 289 289 287 286 285 284 282 282 281 280 281 278 278 278 277 276 279 279 277 276 275 275 278 279 279 279
280 278 287 287 287 292 291 289 288 289 289 290 289 289 290 290 291 290 288 286 284 281 281 281 279 280 279 279 279 278 277 277 277 277 278 277 277 275 276 274 276 278 278 277
275 279 282 285 289 290 291 289 289 289 289 289 290 290 289 289 290 288 285 283 279 279 281 280 278 280 277 277 279 276 276 276 280 281 277 275 277 278 277 277 276 277 278 278
275 280 280 282 284 286 286 287 288 289 289 291 289 289 289 288 286 287 286 280 278 278 278 278 280 280 281 279 280 279 276 279 281 281 281 278 279 278 281 281 280 277 277 278
276 281 281 283 285 285 284 285 286 287 288 288 286 287 287 285 284 283 279 277 276 275 276 274 274 278 279 283 282 282 280 278 280 280 280 280 281 283 286 286 287 287 287 285
282 285 285 286 287 285 285 286 286 286 287 285 287 284 283 281 278 277 275 273 275 272 272 275 276 276 276 279 284 282 281 280 280 280 279 278 279 279 278 281 284 284 284 284
284 283 281 282 283 286 285 285 283 282 283 283 283 277 277 278 274 272 271 273 273 273 273 273 272 271 270 274 283 283 282 281 281 280 280 280 280 279 278 276 275 275 281 281
283 281 280 281 282 282 281 281 279 281 282 282 275 274 272 271 271 269 268 271 271 270 269 268 267 267 268 274 276 277 277 278 278 278 279 279 278 279 278 277 275 274 274 275
272 272 274 275 277 277 277 275 276 279 280 279 273 271 271 270 267 266 267 268 268 264 265 265 265 265 268 272 273 272 273 275 275 274 273 273 273 274 274 273 274 275 270 269
264 267 265 266 267 269 269 271 272 274 278 279 272 272 270 268 266 265 263 263 263 262 264 264 264 265 267 270 271 271 271 271 272 271 270 271 271 271 271 271 271 268 267 270
260 262 263 264 264 265 265 266 267 269 273 273 266 268 268 267 266 263 262 261 261 260 261 262 264 266 267 269 270 269 269 268 268 267 267 267 267 268 268 267 266 265 265 266
257 258 259 261 261 260 260 261 263 265 267 264 264 266 267 265 264 263 264 263 262 260 259 262 267 264 266 269 268 268 267 266 266 266 266 265 264 263 264 264 263 262 261 260
253 255 256 256 256 255 257 257 260 262 262 262 263 261 261 261 261 260 259 256 257 258 260 262 262 262 263 265 266 265 265 264 263 263 262 262 262 261 260 259 259 258 257 255
252 254 255 255 254 255 255 257 259 259 260 261 259 258 259 259 259 259 259 257 257 261 261 260 261 262 263 263 263 263 262 262 261 261 260 260 260 259 257 256 253 254 252 253
254 254 253 252 252 251 254 256 257 257 258 259 259 259 258 257 258 258 259 258 260 262 261 261 261 262 262 263 262 261 261 260 260 259 258 257 256 256 253 253 253 253 252 251
252 252 252 250 251 252 254 255 255 256 257 258 258 258 258 259 260 258 257 260 261 261 261 261 262 262 262 260 260 260 259 259 258 257 255 254 253 253 252 251 250 251 250 250
251 252 253 254 254 254 253 254 255 256 256 256 256 257 258 257 257 258 259 259 260 260 260 260 261 262 259 258 258 258 258 257 255 252 253 254 251 250 249 250 249 249 249 249
253 255 256 256 256 255 256 256 255 255 255 255 255 256 256 257 257 257 257 258 260 257 257 259 260 259 257 256 257 256 255 253 251 249 249 249 248 248 247 247 247 247 246 247
251 254 255 255 255 256 256 256 255 255 254 253 253 254 255 256 257 256 256 256 256 256 255 255 255 255 255 255 254 254 252 251 252 250 249 248 247 247 247 247 247 248 248 248
254 256 255 254 254 254 254 254 253 253 254 253 252 253 254 254 255 255 255 254 255 255 254 254 254 253 252 252 252 252 251 250 251 249 246 246 246 245 246 246 245 246 248 249

GFSNGP_sfc_thetae_063.txt.gz
Theta_e
288 290 291 290 289 289 286 286 282 285 285 290 292 294 296 294 296 296 297 297 297 298 298 298 298 298 298 297 297 297 296 296 297 296 296 296 294 293 293 292 293 290 288 287
285 289 289 287 290 289 289 289 287 287 287 294 295 296 295 295 295 296 296 297 298 299 299 299 299 298 298 298 297 296 295 295 296 293 291 291 290 290 290 289 288 287 286 285
281 285 285 282 285 288 289 291 290 286 291 295 294 294 294 296 297 296 295 296 296 296 297 297 296 296 295 295 293 291 290 288 287 288 288 289 289 288 288 287 285 285 284 284
279 281 275 283 288 290 289 290 292 293 294 295 296 294 295 295 294 294 294 294 295 294 293 293 293 292 291 288 287 287 286 286 286 285 284 283 283 285 286 284 283 282 281 281
270 269 278 283 285 285 283 283 288 287 290 292 290 291 291 294 294 293 294 294 293 293 291 291 290 288 286 286 286 286 286 286 286 284 281 281 280 280 281 279 278 278 279 280
267 271 267 280 285 287 287 279 287 288 287 287 288 283 286 292 292 292 293 292 291 291 289 289 288 286 284 285 283 284 284 285 285 281 278 278 280 278 278 277 279 281 282 283
277 273 273 282 283 288 275 277 282 285 287 286 286 288 290 292 292 291 290 291 290 289 288 287 285 283 283 283 283 281 280 280 279 279 277 278 276 276 275 278 281 281 280 280
278 275 273 284 284 281 284 284 285 285 287 286 287 288 288 289 288 289 289 288 288 287 286 285 282 281 282 281 281 277 276 276 275 274 278 276 276 272 273 277 280 279 279 279
277 276 283 286 285 289 290 288 286 287 287 288 287 287 288 288 289 289 288 288 286 284 284 283 277 278 279 279 277 276 275 277 276 275 276 275 276 275 274 275 279 278 278 278
275 277 278 283 287 290 291 289 287 287 286 286 287 287 287 287 287 288 286 284 281 279 280 280 276 277 276 276 275 275 279 279 280 279 276 273 276 275 275 274 277 278 277 277
272 277 278 280 282 285 286 287 286 286 287 286 286 287 286 285 284 285 284 282 278 278 278 277 275 274 274 276 275 275 279 280 280 280 276 275 278 280 280 279 279 276 274 275
272 279 279 281 284 284 283 283 283 283 283 285 285 285 284 283 284 283 283 280 276 274 273 271 270 271 277 276 276 277 278 280 280 280 279 279 282 283 287 287 286 286 285 281
279 283 282 283 284 283 283 284 284 284 284 283 283 284 281 282 278 277 275 273 271 271 270 268 270 269 272 274 279 282 281 280 279 279 279 279 279 279 278 281 285 285 285 285
281 280 279 280 280 281 282 283 282 280 280 281 280 276 277 277 273 271 270 269 268 268 272 272 267 265 269 272 276 282 281 280 280 279 279 279 278 277 276 274 275 276 282 282
280 277 277 277 277 278 278 277 276 277 277 278 276 274 271 273 273 270 264 265 268 270 269 268 268 267 268 271 277 280 279 279 279 279 279 279 279 278 275 273 274 272 274 275
269 270 269 270 270 271 269 269 269 271 272 272 273 274 274 272 266 262 262 266 270 269 267 262 265 267 268 273 274 276 276 276 277 276 276 276 276 275 273 274 272 269 268 267
263 267 262 262 264 264 264 265 266 267 267 267 268 271 273 271 268 260 259 262 266 261 262 262 265 267 269 272 273 272 272 272 272 272 271 272 272 271 271 271 268 267 266 272
258 259 259 259 260 260 260 260 260 261 261 264 265 266 270 269 269 265 260 263 262 260 260 262 265 267 269 270 270 270 269 269 269 269 269 269 268 268 267 266 266 265 263 267
254 254 256 258 257 257 257 257 257 258 259 260 262 264 267 268 265 264 261 262 262 260 260 262 268 266 268 269 269 269 268 268 267 266 266 265 265 265 264 263 262 261 261 260
250 252 253 253 253 252 254 255 255 255 257 259 260 260 259 257 260 262 260 256 257 259 261 262 263 263 265 268 268 267 266 266 265 263 264 263 262 261 261 261 260 258 257 255
250 251 252 251 252 252 251 251 253 255 256 255 258 257 257 257 259 259 258 257 258 261 261 261 262 263 263 264 264 264 264 263 263 262 261 261 260 260 259 258 257 257 254 254
248 248 249 250 249 249 249 250 251 254 255 254 256 256 257 257 258 258 259 259 261 262 261 261 262 263 263 264 263 262 262 261 261 260 260 259 259 258 257 257 254 253 253 250
247 247 249 248 249 250 249 250 252 254 253 255 256 257 258 258 259 259 257 260 261 261 261 262 263 263 263 261 261 261 260 260 259 258 258 257 256 255 253 254 254 252 250 249
245 247 247 247 247 248 248 252 254 255 255 256 256 257 258 257 257 258 259 260 260 260 260 261 262 262 260 259 259 258 258 257 256 256 257 256 253 253 252 250 250 249 248 247
245 246 248 249 249 251 253 255 255 255 255 255 255 256 256 257 256 256 257 258 260 257 257 260 260 259 257 256 256 256 256 255 254 254 253 253 253 249 247 246 246 246 245 244
247 248 250 251 251 254 255 255 254 254 254 253 253 254 255 256 256 256 256 256 256 256 255 256 255 255 255 254 254 254 254 254 254 254 253 252 247 247 246 246 246 246 245 245
249 253 251 252 253 254 254 254 253 253 254 253 252 253 254 254 255 255 255 255 255 255 254 254 254 254 253 253 252 252 252 252 253 252 249 248 246 244 245 246 246 246 246 247

GFSNGP_sfc_thetae_069.txt.gz
Theta_e
285 288 287 285 285 286 283 285 281 284 283 286 289 290 291 291 292 293 293 293 293 293 293 293 293 293 293 293 293 291 291 291 291 292 292 292 291 290 290 289 291 292 291 289
284 287 287 284 287 287 285 285 286 285 286 292 293 291 292 292 293 292 291 292 292 293 293 293 293 293 292 291 290 289 289 288 288 286 286 286 287 287 287 288 288 288 288 287
281 285 286 282 285 286 286 288 288 285 289 290 289 290 291 290 290 290 290 291 291 291 292 292 291 291 291 291 288 286 285 286 285 285 285 286 285 285 286 287 286 286 286 286
279 282 276 282 285 290 288 289 291 290 290 290 290 290 290 290 289 289 290 290 291 291 291 291 290 290 289 287 286 286 286 284 282 284 283 283 284 284 284 285 283 282 282 282
278 278 279 281 283 285 285 284 290 290 286 286 287 287 287 290 290 290 289 291 291 290 289 289 289 289 286 286 285 285 285 285 284 282 282 282 281 281 281 279 278 277 279 276
276 276 270 278 283 285 284 277 285 286 285 285 285 281 283 290 287 288 289 289 289 288 288 288 289 287 284 285 283 284 284 284 282 281 281 283 282 280 278 275 278 278 280 283
273 273 275 280 283 283 273 276 280 286 286 285 283 285 286 286 286 286 286 287 287 286 286 287 286 284 283 282 282 283 281 280 278 278 277 278 277 275 273 273 276 275 278 280
277 274 272 282 282 279 281 283 283 284 284 284 284 284 284 284 285 285 285 286 285 284 284 285 283 280 280 280 282 279 278 277 276 278 275 277 269 271 269 270 272 277 279 279
277 278 282 282 282 284 285 284 283 284 284 284 283 282 282 283 284 284 285 284 284 281 281 282 278 277 278 280 278 278 276 276 279 280 274 272 269 270 270 268 270 275 278 278
274 274 279 283 286 286 286 285 285 284 284 284 282 282 282 283 283 283 281 280 278 277 278 278 279 276 276 276 276 273 273 275 279 279 274 270 272 272 275 275 278 278 278 279
271 275 276 278 281 284 283 282 282 283 282 282 281 281 281 281 281 281 280 278 276 276 277 277 277 277 274 274 279 278 274 274 276 275 272 272 275 275 275 276 280 279 279 279
273 279 279 280 283 283 281 283 283 282 281 281 281 281 281 281 280 279 278 276 277 275 274 276 274 274 274 269 272 277 277 278 279 279 274 275 279 279 284 284 284 284 283 281
279 281 281 282 282 282 281 281 281 280 281 280 280 280 277 278 276 276 275 272 272 274 275 274 272 272 272 265 266 272 276 279 279 278 275 274 276 277 280 283 286 286 286 285
280 280 278 279 279 279 280 279 276 274 275 277 275 271 271 271 272 271 271 272 273 271 271 268 268 269 267 261 261 265 270 275 279 277 273 273 277 277 277 277 275 275 281 283
279 279 278 277 276 276 273 271 269 270 271 269 268 266 264 265 265 266 267 269 269 269 267 265 265 268 261 258 261 264 269 273 278 277 278 277 277 276 275 274 273 272 273 275
274 269 269 270 272 270 267 265 265 267 266 265 264 264 264 263 262 263 263 264 265 267 269 259 263 266 258 257 261 265 269 273 278 279 279 278 276 274 273 272 271 271 270 269
268 266 261 263 266 264 262 262 263 263 262 261 260 260 259 258 259 259 261 262 265 267 267 261 262 258 259 260 262 266 270 274 278 279 278 276 275 274 272 271 270 269 269 271
262 261 260 260 260 258 257 255 255 255 256 257 257 256 256 255 256 258 260 261 263 264 261 260 256 258 260 261 264 268 271 273 274 276 275 275 273 272 271 270 269 268 267 270
255 256 255 257 255 253 251 250 250 252 253 253 253 253 254 255 256 257 259 260 260 260 260 254 262 263 260 262 267 268 269 270 271 271 271 271 270 270 269 267 266 264 264 263
250 251 250 249 248 248 248 249 247 247 249 248 249 251 252 254 255 257 257 256 258 257 258 257 259 260 261 264 267 267 269 269 269 268 269 268 268 266 265 265 263 262 261 260
249 248 248 247 247 245 245 245 245 246 248 246 248 250 252 254 255 254 254 255 255 256 258 261 261 261 262 263 266 266 266 266 266 266 266 265 265 264 263 262 261 261 259 258
245 245 246 245 245 245 245 244 243 244 246 247 248 249 250 252 252 253 254 255 257 261 260 260 261 263 263 264 264 264 264 264 263 264 263 263 263 262 261 260 260 259 258 256
244 244 245 244 245 245 243 243 244 244 246 246 248 250 251 253 253 253 254 257 259 261 260 261 263 264 263 262 262 262 262 262 262 262 262 262 261 261 260 259 258 258 257 256
242 242 243 242 241 243 246 245 244 245 245 247 248 251 252 253 252 254 257 259 258 258 259 261 262 262 260 260 260 260 259 259 260 260 259 259 259 259 258 258 257 257 256 255
241 241 241 242 244 245 243 244 245 245 246 249 251 253 254 255 252 252 254 256 258 257 256 258 260 259 257 257 257 257 257 257 257 258 258 258 257 257 256 256 255 254 254 254
242 243 243 242 244 244 244 245 246 246 248 251 252 253 254 255 255 253 254 256 256 256 256 256 256 256 256 256 256 256 256 256 256 256 256 256 255 255 254 254 254 253 252 250
241 244 243 244 244 245 245 246 246 247 250 251 252 254 255 255 255 255 255 255 255 255 255 255 255 255 255 255 255 255 255 255 255 254 254 254 253 253 253 252 251 247 246 246

GFSNGP_sfc_thetae_072.txt.gz
Theta_e
285 285 285 284 284 283 283 285 282 283 283 289 289 287 290 290 291 292 292 291 291 291 291 291 291 291 291 291 291 290 289 289 289 289 289 288 288 288 288 288 289 289 289 288
282 286 286 285 285 285 285 285 283 284 284 289 291 291 290 291 291 290 290 290 290 290 291 291 291 291 291 290 289 287 287 286 287 286 285 285 285 285 285 286 286 287 287 286
276 284 284 280 284 285 285 286 286 284 288 290 289 290 291 289 289 289 289 289 289 289 290 290 289 290 289 288 287 285 285 284 283 284 283 284 284 284 284 284 285 285 285 285
279 284 278 284 284 288 288 288 290 289 289 290 290 290 290 289 288 288 289 289 289 289 289 289 289 288 288 286 286 285 285 283 281 282 282 281 281 281 283 283 283 283 282 282
279 279 281 282 283 285 286 285 290 290 288 287 287 288 286 288 289 288 287 289 289 288 288 288 287 287 285 285 285 285 285 284 284 282 281 281 281 281 280 280 279 279 279 279
277 276 271 280 283 287 285 278 285 290 286 285 285 281 284 289 286 286 286 288 288 286 286 286 286 284 284 284 282 283 284 283 282 280 279 279 280 280 277 275 279 279 279 275
279 276 276 281 282 283 276 279 280 285 285 284 284 284 285 285 284 285 285 285 284 284 285 285 284 283 282 282 281 282 280 279 279 278 277 277 277 276 276 275 276 275 275 274
278 276 275 282 281 280 281 282 283 283 284 284 285 285 283 283 283 284 284 285 284 284 283 283 282 279 279 279 281 277 277 276 277 275 278 278 272 273 271 270 271 273 273 276
280 280 281 281 282 283 284 283 283 284 283 284 283 282 282 282 283 283 283 284 283 280 280 281 277 275 277 279 276 275 274 275 275 276 279 274 270 272 271 267 270 272 273 272
277 275 278 282 284 284 285 284 284 283 283 283 282 281 280 281 281 282 280 278 277 276 277 277 277 275 275 276 275 275 279 278 276 277 279 277 274 273 272 272 272 274 274 274
270 274 277 279 281 284 283 283 283 283 283 282 281 280 280 280 279 279 279 277 275 275 276 277 276 276 275 274 271 272 275 279 280 280 279 277 276 276 275 275 276 272 273 273
274 280 282 283 284 282 281 282 282 282 281 281 280 281 280 278 278 278 276 274 273 272 271 272 271 274 274 267 266 267 273 277 279 280 280 280 277 276 281 285 285 284 285 279
279 282 281 283 284 282 282 281 281 281 281 280 279 277 275 274 273 272 270 269 268 270 271 271 271 271 272 264 262 264 267 271 274 276 279 279 275 274 278 280 285 286 284 284
281 280 278 279 280 281 282 281 276 274 274 275 273 269 268 268 267 266 266 265 266 266 266 267 268 268 270 266 260 261 263 266 269 271 275 278 277 275 272 271 272 274 279 284
279 280 280 279 278 277 275 272 269 270 270 268 267 265 263 263 262 262 262 262 263 262 263 263 265 267 264 260 260 263 263 266 268 272 275 277 277 277 275 274 274 273 274 275
275 272 271 273 274 273 270 266 268 268 266 264 262 262 262 260 259 259 259 258 258 261 262 264 265 266 262 257 260 261 263 265 267 270 273 277 277 276 274 274 273 273 272 271
270 269 264 264 269 268 265 263 264 263 262 260 258 257 255 255 255 255 254 254 257 260 261 262 263 264 258 258 259 262 264 265 268 270 273 278 276 275 274 273 272 271 270 270
271 268 266 267 267 262 258 256 256 255 255 255 254 253 251 249 253 255 256 256 257 258 259 261 255 257 258 258 259 262 264 266 268 270 274 276 276 275 273 272 271 270 270 272
259 260 258 259 258 257 255 253 251 251 251 250 248 249 249 250 252 253 254 254 255 256 259 253 261 261 258 259 262 265 266 267 268 270 273 275 273 272 271 270 269 267 266 264
253 254 254 251 250 251 250 248 247 246 246 245 244 244 246 249 250 251 252 253 254 256 257 256 256 258 258 259 262 264 265 267 268 269 270 271 271 270 269 268 266 265 264 262
252 252 251 251 249 245 246 245 246 245 247 243 243 245 246 249 248 249 249 254 254 255 256 258 257 260 260 261 264 264 264 265 265 266 268 267 267 267 266 265 264 263 261 260
249 250 249 248 248 246 243 242 244 242 243 243 243 243 244 248 248 250 251 253 257 258 259 259 260 262 263 263 262 262 263 263 264 265 265 265 265 264 263 263 262 261 260 259
248 247 247 247 247 246 241 241 242 243 244 244 245 245 247 250 252 251 252 252 256 257 257 259 261 262 263 260 260 261 261 261 261 262 262 262 262 262 261 261 260 260 259 258
245 244 244 241 240 243 246 244 242 242 242 243 244 245 247 249 249 249 252 254 255 256 256 258 260 262 259 258 259 259 259 259 260 260 260 260 260 260 260 260 259 259 258 258
246 244 242 245 248 245 242 242 242 243 243 244 245 246 247 249 249 250 249 251 255 255 254 257 260 259 257 256 257 257 257 257 258 258 258 258 258 258 258 258 258 257 256 256
246 248 247 245 245 243 243 243 245 244 244 245 245 246 246 248 250 251 251 254 254 255 254 256 256 256 256 256 256 256 256 256 256 256 256 256 256 256 256 256 255 255 255 253
244 245 243 244 243 242 243 244 244 245 244 243 245 245 247 248 249 252 255 255 255 255 255 255 255 256 255 255 255 255 255 255 255 255 255 255 255 254 254 254 254 253 253 252

GFSNGP_sfc_thetae_075.txt.gz
Theta_e
283 283 283 283 283 283 283 285 281 282 283 287 289 288 290 291 291 291 290 290 290 290 290 290 291 291 291 291 291 290 289 289 289 289 289 288 288 288 288 288 289 289 289 290
281 285 285 283 284 285 286 283 282 281 283 289 292 289 290 291 291 290 289 289 290 290 290 290 290 290 290 290 289 288 287 287 287 286 286 286 286 286 286 286 287 287 287 287
274 283 284 278 284 284 285 285 286 283 287 290 288 290 289 290 290 289 289 289 289 289 289 289 289 289 289 289 288 286 286 285 284 284 283 284 284 284 284 285 285 285 285 286
280 281 275 284 284 288 288 288 288 288 289 291 290 290 291 290 288 288 289 289 289 289 289 289 288 288 287 286 286 285 284 283 282 283 282 282 281 282 282 283 283 283 283 284
280 281 281 282 283 285 286 286 290 289 288 288 287 287 286 288 288 288 289 289 289 288 288 287 287 286 285 285 284 284 284 283 283 281 280 280 279 280 281 281 281 280 282 281
280 278 277 282 284 288 287 280 287 291 288 286 287 284 285 287 286 287 287 288 288 287 286 286 285 284 284 283 282 283 283 282 281 280 278 278 280 279 279 278 279 280 280 280
281 277 278 281 283 285 280 281 281 287 287 286 285 286 286 286 286 286 286 287 286 285 285 284 284 283 282 281 281 281 279 279 279 278 277 277 278 277 277 276 277 277 278 279
280 278 278 282 281 282 283 282 283 284 284 284 283 283 283 284 284 284 284 284 285 285 284 283 281 279 278 279 280 277 276 276 276 275 276 278 278 275 274 273 274 275 275 278
284 283 282 281 282 283 285 284 284 284 284 285 283 282 282 282 283 283 283 283 283 280 279 281 276 276 276 278 277 276 273 276 279 279 275 279 279 276 276 273 274 276 276 277
282 279 279 283 284 284 285 285 284 283 283 283 282 282 281 281 281 281 279 278 276 275 274 275 275 275 273 275 276 272 272 274 276 278 281 282 281 278 276 276 276 276 276 277
272 276 277 279 281 284 284 283 282 282 282 282 282 280 280 280 279 278 278 276 274 273 272 273 273 272 270 273 272 271 271 273 275 278 279 280 281 281 278 278 278 279 279 278
277 281 283 284 284 283 282 282 282 282 281 281 281 280 280 278 278 276 273 272 270 268 268 269 269 269 268 266 268 267 270 272 273 275 276 277 278 279 282 283 284 285 286 285
280 284 282 285 286 282 282 282 282 282 281 280 278 277 274 274 272 271 269 268 266 266 266 265 265 266 264 264 261 263 265 268 269 270 271 273 275 276 276 279 284 285 285 285
282 281 280 281 283 282 282 281 277 275 275 276 273 268 268 267 266 265 265 264 262 261 261 261 262 263 266 264 259 261 262 264 265 267 268 270 273 275 277 276 276 277 279 284
281 279 281 280 279 278 276 274 272 272 271 268 266 264 262 260 258 258 257 257 257 256 256 257 259 262 263 261 261 262 263 264 265 266 267 269 272 274 276 276 275 274 276 278
275 272 272 276 277 274 271 268 271 270 267 265 263 262 261 259 256 254 253 252 253 257 257 258 259 261 262 256 260 260 261 262 264 265 266 268 270 273 275 276 275 275 275 275
272 270 267 268 272 271 271 268 269 268 265 263 260 258 255 253 252 250 250 250 251 253 255 257 258 260 256 258 258 260 261 262 263 264 265 267 269 272 276 275 275 275 275 273
278 279 278 274 273 268 263 262 262 261 259 258 256 253 250 248 249 250 250 249 250 250 254 255 255 257 260 259 258 259 260 261 263 264 266 268 270 273 276 275 274 273 272 274
265 271 266 266 267 268 261 257 255 254 253 252 250 249 247 247 247 247 247 246 249 249 253 252 260 260 257 257 261 262 262 262 264 265 267 268 270 273 275 274 272 271 269 267
257 258 257 255 254 255 254 251 252 251 247 247 245 244 245 246 244 244 244 246 249 252 253 254 254 255 257 258 260 260 261 262 263 264 266 268 270 272 272 272 270 268 266 265
258 255 254 254 251 250 252 251 251 250 247 245 246 245 246 245 243 243 245 247 251 250 254 256 255 258 261 261 261 261 261 262 263 264 266 267 268 268 268 267 266 265 263 262
252 253 252 251 251 248 244 246 247 247 246 243 242 242 241 244 244 245 246 249 251 254 254 255 256 259 260 260 259 260 260 261 262 263 264 265 266 265 265 264 263 262 262 261
250 250 250 249 250 248 243 242 243 245 246 244 246 245 247 248 247 248 249 248 250 252 251 252 256 261 260 257 258 259 259 259 260 260 261 262 263 263 263 262 262 261 261 260
248 249 247 245 245 247 248 243 241 242 242 242 243 244 246 246 246 247 248 250 251 253 251 253 258 261 257 255 257 257 258 258 258 259 259 260 260 261 261 261 260 260 260 260
249 247 246 248 248 247 246 242 241 241 242 242 243 244 244 247 248 247 246 248 252 252 250 254 259 258 253 253 256 256 257 257 257 257 257 258 258 258 258 259 259 259 259 258
248 250 248 247 246 248 246 244 247 243 243 244 243 243 244 245 247 248 248 250 250 252 250 251 251 254 253 254 255 256 256 256 256 256 256 256 257 257 257 257 257 257 257 257
249 249 247 248 247 249 248 249 250 247 243 242 244 244 244 245 246 249 250 250 250 251 251 250 253 255 254 254 255 255 256 256 256 256 256 255 256 255 255 255 255 255 255 255

GFSNGP_sfc_thetae_078.txt.gz
Theta_e
288 288 289 289 288 287 287 290 286 289 288 292 294 295 296 297 297 296 295 295 295 295 295 295 296 296 296 296 295 295 295 294 293 293 292 292 292 292 292 292 292 292 292 292
286 288 288 286 289 288 289 290 289 288 289 295 298 298 296 295 296 295 295 294 293 294 294 294 294 294 294 294 293 294 293 292 291 290 289 289 289 289 289 289 289 289 289 290
284 287 288 284 287 288 290 292 290 286 291 293 294 293 296 296 296 296 294 293 293 293 294 294 294 293 293 293 293 291 291 289 288 287 287 287 287 287 287 287 287 287 287 288
283 284 279 289 292 292 290 291 292 293 293 294 294 296 298 298 297 295 293 293 293 294 293 293 293 292 291 291 290 289 288 288 287 286 286 285 285 285 286 286 286 285 286 286
283 283 287 289 287 289 288 289 293 293 293 293 293 294 293 295 296 295 294 294 294 294 293 292 291 290 289 288 288 287 287 286 286 285 284 283 283 284 285 285 285 285 285 285
284 283 280 290 289 293 294 286 294 294 292 290 292 289 293 291 292 293 293 293 292 291 290 290 288 288 287 286 286 285 284 284 284 284 282 282 283 283 284 283 283 284 284 284
284 284 286 288 288 291 285 289 291 295 293 291 292 293 292 290 289 291 292 291 291 290 289 287 286 286 285 284 283 283 282 282 282 282 282 282 282 283 282 282 282 282 283 284
284 283 282 286 287 288 290 286 289 291 291 291 288 289 289 289 288 288 288 289 289 289 287 286 284 283 282 282 282 281 280 279 280 281 282 282 281 283 283 281 281 282 283 284
287 288 286 287 287 288 289 289 288 290 290 289 287 287 287 286 287 287 287 287 287 286 284 282 280 280 279 280 279 278 276 276 277 279 281 283 282 283 282 281 280 282 283 283
286 285 285 286 287 288 289 289 289 290 289 288 286 286 286 285 285 285 284 283 282 281 279 278 278 277 276 276 277 274 274 275 277 277 279 281 282 283 283 282 281 281 282 282
281 280 283 286 286 288 287 287 287 288 288 287 286 285 285 283 283 283 281 279 278 276 275 274 274 274 274 274 273 272 273 275 276 277 278 279 280 281 281 282 282 280 280 281
285 285 288 287 288 288 286 286 286 285 284 284 285 284 283 282 282 280 277 275 274 271 270 271 270 270 270 270 270 269 271 273 274 273 275 276 276 277 280 281 282 284 284 284
285 287 286 289 289 287 286 285 285 285 285 283 282 283 282 279 276 273 272 271 269 268 267 267 267 266 267 268 268 267 268 269 270 271 272 273 273 274 274 277 281 283 283 285
285 285 284 286 284 285 285 284 281 279 280 281 277 275 274 273 270 270 269 267 265 264 264 263 263 263 265 267 266 265 266 266 267 269 270 270 271 272 273 274 274 277 282 283
283 280 284 284 282 281 280 279 278 277 275 273 272 270 269 268 267 266 264 261 261 260 260 260 259 261 264 264 263 264 265 266 267 267 268 268 269 270 271 272 273 276 279 281
278 276 277 282 281 279 278 276 277 275 273 270 268 267 266 265 262 261 259 259 260 263 259 258 259 261 261 261 261 263 264 264 264 265 266 267 268 269 270 272 273 276 278 280
276 275 274 275 278 276 277 278 279 276 272 269 268 264 261 260 259 258 257 256 257 256 257 258 258 259 259 259 261 263 263 264 263 264 265 266 267 268 270 271 273 276 278 281
284 284 283 281 280 277 272 273 273 271 269 267 262 260 258 258 263 258 256 255 254 255 257 259 258 258 259 261 261 262 262 263 263 264 265 266 267 268 270 271 272 275 278 279
278 281 281 279 279 278 275 270 268 265 261 260 258 258 258 256 256 255 253 253 253 256 260 258 261 260 260 260 263 264 263 263 263 264 265 265 267 268 270 271 273 277 277 275
274 267 270 267 265 270 266 262 260 258 256 256 254 254 255 254 252 252 252 255 257 259 258 258 258 259 260 261 262 263 263 263 263 264 265 265 266 268 270 271 274 275 273 270
275 268 265 262 259 257 259 258 257 255 252 253 256 256 255 253 251 250 253 259 258 256 257 258 259 260 261 261 261 262 262 262 262 263 264 264 266 268 270 271 271 270 268 267
259 258 256 256 256 253 253 254 255 253 252 251 250 250 251 253 252 251 252 257 258 255 258 259 259 259 261 259 261 261 261 261 261 262 262 263 264 265 267 267 267 266 265 264
257 257 255 254 255 252 250 251 252 253 252 251 251 251 254 257 257 257 258 256 256 256 258 258 257 261 260 259 259 260 260 260 260 261 261 262 263 263 264 264 264 264 263 263
252 253 252 251 251 252 252 249 251 251 251 251 251 250 254 255 255 254 256 254 253 255 257 257 259 261 257 258 258 258 259 259 259 260 260 260 261 261 262 262 262 263 262 262
252 250 250 252 254 255 253 250 249 249 249 252 251 251 251 253 255 257 255 256 255 256 257 256 259 258 257 257 257 257 258 258 258 258 259 259 259 259 260 260 260 261 261 261
252 253 254 255 256 255 253 253 255 253 253 253 253 253 253 253 254 255 255 255 256 256 257 257 257 257 257 257 257 257 257 258 258 258 258 258 258 258 258 258 259 259 259 259
251 251 251 252 253 253 253 254 254 253 253 254 254 253 253 254 254 254 254 255 255 256 256 256 257 257 257 257 257 257 257 257 257 257 258 257 257 257 257 257 257 258 258 258

GFSNGP_sfc_thetae_084.txt.gz
Theta_e
287 289 288 287 286 286 285 287 283 285 285 289 291 293 295 295 296 296 296 297 296 295 293 291 291 292 292 292 292 292 290 289 289 289 289 288 287 287 287 286 287 287 287 286
283 287 287 285 287 288 288 287 286 286 286 291 294 295 295 296 297 296 296 297 296 294 293 292 292 292 292 291 291 290 288 287 287 286 285 284 284 284 284 284 284 284 284 284
276 284 284 279 285 288 288 289 289 285 290 291 292 295 296 296 297 297 297 296 295 294 293 292 292 292 290 289 289 286 284 284 284 284 283 283 283 283 283 283 283 283 283 283
278 280 273 285 291 292 290 291 292 291 291 292 293 296 298 299 297 297 297 296 294 293 292 291 290 289 289 288 286 284 284 283 282 283 281 282 282 282 282 282 282 282 282 281
281 279 283 286 287 287 286 288 292 291 293 291 292 293 292 297 298 298 298 295 294 293 291 289 288 288 285 284 284 283 282 282 282 281 279 279 277 279 280 280 279 278 280 278
283 274 273 286 289 292 291 283 292 293 292 290 292 289 292 296 298 297 295 294 292 291 289 288 287 286 284 283 282 281 281 281 280 280 276 276 279 278 278 277 281 281 280 279
280 273 281 286 289 291 281 284 287 292 292 292 293 295 294 295 294 295 293 290 290 289 287 286 285 283 282 281 280 280 280 279 277 277 275 276 276 275 274 276 278 278 279 279
277 274 277 287 287 286 289 286 287 289 290 293 290 291 292 293 291 289 288 288 288 285 284 283 283 282 281 279 280 277 275 274 271 269 272 275 269 271 272 273 275 277 274 279
285 284 286 286 285 287 288 288 286 289 289 289 288 288 289 288 288 287 286 285 285 283 281 280 278 280 280 276 276 273 268 267 267 268 270 270 268 271 270 269 272 276 277 277
287 284 283 285 286 286 287 287 289 289 289 289 287 288 287 287 286 285 285 284 282 281 278 276 277 275 274 273 271 266 265 266 268 268 269 267 271 273 268 268 273 274 275 275
282 281 281 283 284 286 287 288 288 288 287 287 287 286 287 285 284 284 283 282 282 281 278 275 273 271 270 270 268 268 267 268 267 268 265 269 271 271 273 272 273 274 275 275
286 287 287 287 286 288 287 287 287 285 285 285 286 285 284 283 283 282 280 278 277 275 274 271 269 268 266 264 266 264 265 267 266 266 265 268 269 269 274 276 278 278 279 278
287 288 288 288 288 287 286 287 285 285 284 284 283 284 283 282 280 278 276 275 273 272 270 268 266 265 262 260 261 260 259 262 262 265 264 264 266 266 266 269 274 275 276 277
284 285 284 286 286 286 285 284 282 279 279 280 280 280 279 277 275 275 274 271 269 267 264 262 261 260 259 258 256 256 255 261 259 260 260 260 261 264 264 264 264 266 271 273
282 281 282 283 283 282 282 281 280 279 277 276 274 277 277 275 273 271 267 265 264 262 260 260 258 257 255 255 256 254 257 257 257 258 258 260 262 263 264 264 265 265 267 270
279 277 278 280 279 279 278 278 279 278 277 273 274 274 273 272 269 265 262 262 263 262 259 258 255 255 254 253 253 254 255 260 259 257 258 258 261 262 263 263 264 264 265 266
276 277 275 275 276 276 278 279 279 279 276 275 274 270 268 266 263 260 257 255 256 256 255 255 255 253 252 253 253 254 255 256 259 257 256 257 261 262 263 263 264 264 265 267
281 282 281 281 279 277 275 276 274 275 275 274 270 268 266 266 267 262 258 256 255 253 254 255 256 255 253 253 254 255 254 254 255 255 258 261 260 262 262 263 263 264 265 267
277 280 278 279 280 280 279 277 276 276 272 271 268 268 266 264 263 260 258 257 257 256 256 253 262 255 254 254 256 257 256 256 256 255 256 259 259 259 261 263 263 264 265 267
272 273 272 272 272 272 273 268 271 269 266 268 264 263 261 259 258 256 254 254 254 255 253 252 252 252 252 253 258 255 255 256 255 254 254 255 256 259 260 261 262 263 264 266
264 264 264 264 261 261 261 261 265 264 259 263 266 264 261 255 256 255 254 256 254 253 253 256 253 255 254 256 255 253 253 254 253 253 253 254 255 256 259 259 261 261 262 263
259 258 259 259 259 256 255 257 258 258 258 258 258 258 256 253 253 253 251 255 256 257 255 254 255 255 254 257 252 252 252 252 251 252 252 252 252 255 257 258 259 260 261 261
255 255 255 255 254 253 253 253 254 256 257 257 257 257 257 256 256 256 255 253 254 254 253 253 255 257 260 252 251 252 252 251 252 252 252 252 253 255 256 257 258 259 260 261
250 253 252 252 253 253 252 251 252 252 253 253 255 257 258 256 254 255 256 257 256 255 252 252 256 261 256 252 252 251 250 250 251 251 252 254 253 253 254 255 256 256 258 259
247 248 250 251 256 255 253 252 252 252 252 250 250 252 254 255 256 256 255 254 258 255 254 259 261 260 253 252 251 251 251 250 251 250 251 252 253 253 253 253 254 256 257 258
249 249 248 249 249 250 251 254 254 255 255 253 253 254 254 255 256 255 255 256 255 256 254 255 255 255 253 253 253 251 253 254 254 253 252 253 254 255 255 255 255 255 256 258
247 251 248 249 251 250 251 253 252 253 256 256 254 256 256 256 256 257 256 256 256 256 256 254 256 257 254 253 252 253 255 253 254 254 251 253 255 255 255 255 255 257 256 257

GFSNGP_sfc_thetae_087.txt.gz
Theta_e
286 287 287 286 286 285 285 286 283 284 284 287 289 291 293 294 294 294 295 295 295 293 292 291 291 291 291 291 291 290 288 287 287 286 286 286 285 284 284 284 285 285 285 284
283 286 287 284 287 287 286 284 284 283 284 289 290 292 292 294 295 295 295 295 295 293 292 291 291 291 291 290 288 287 286 286 285 284 283 283 283 283 283 283 283 283 282 282
277 283 284 280 284 286 287 286 288 283 289 289 288 293 294 294 296 296 296 296 295 293 292 292 291 291 289 288 286 284 283 283 283 283 282 282 282 282 282 281 281 281 281 281
276 278 273 284 290 290 289 289 290 289 289 291 291 295 297 298 297 297 297 297 296 293 292 291 290 289 288 286 284 283 283 282 282 282 281 281 281 280 280 280 280 280 280 280
278 274 282 284 287 286 285 287 290 291 292 290 291 292 293 298 299 299 299 298 296 294 292 290 289 288 285 284 283 283 282 281 281 281 279 278 276 277 279 278 278 277 279 277
279 279 275 287 288 290 290 283 291 292 292 289 291 287 291 295 298 298 299 297 293 291 289 288 287 286 284 283 282 281 281 280 280 279 275 275 277 275 277 276 278 278 279 276
278 276 279 286 287 291 281 285 288 291 292 290 291 295 295 294 294 296 295 292 290 289 288 287 286 284 283 281 280 280 279 278 277 276 274 275 274 274 273 271 273 269 274 275
279 276 278 286 286 286 289 286 288 289 289 291 292 290 290 292 292 291 289 289 289 288 286 285 284 284 281 280 279 277 275 274 272 271 274 274 267 269 267 266 266 270 271 274
285 285 286 285 285 286 288 288 286 288 289 289 289 288 288 287 288 288 288 287 287 285 282 282 280 282 279 277 276 274 273 272 272 270 270 268 265 266 269 265 265 269 271 272
285 282 283 284 285 286 287 287 287 288 288 288 288 287 286 286 286 285 284 283 282 282 280 277 276 277 276 275 274 273 272 272 271 270 268 265 270 270 265 264 265 268 269 271
281 281 281 284 284 285 286 287 286 286 287 287 287 286 286 285 284 283 282 281 281 280 278 275 274 273 273 272 273 271 270 271 269 268 266 267 268 267 269 270 269 265 265 268
282 285 285 286 285 286 285 286 286 285 284 284 285 285 284 283 284 283 281 281 280 278 276 273 271 269 269 269 270 270 269 268 267 266 265 266 265 265 271 274 275 276 277 276
290 292 292 293 290 287 286 286 285 284 284 283 283 283 283 282 281 281 279 279 277 276 273 271 269 267 265 265 265 264 264 264 264 265 263 262 261 260 262 265 271 273 274 275
285 285 284 286 286 286 286 286 282 279 279 281 280 278 279 278 277 278 277 276 274 271 269 267 264 262 261 261 261 261 260 263 260 259 258 257 258 258 257 259 261 263 268 271
283 282 282 282 282 280 280 280 279 279 278 277 276 278 278 278 277 275 270 269 268 265 263 263 262 259 258 259 260 258 259 258 257 257 257 258 257 258 258 259 261 262 263 267
278 276 277 279 279 278 278 276 277 277 275 275 277 277 277 277 273 268 266 265 267 265 262 261 261 259 257 257 257 255 254 258 258 255 255 256 257 257 258 258 260 261 262 263
275 276 274 276 277 276 277 276 277 277 275 275 275 272 271 270 267 265 263 261 262 262 260 260 260 257 256 255 256 255 254 255 259 255 255 255 255 256 257 257 260 261 262 264
278 279 278 279 277 275 274 275 272 273 275 274 271 271 270 270 272 265 260 258 257 257 258 258 258 256 255 255 255 255 255 254 254 254 255 256 255 255 256 257 259 260 262 263
273 274 273 275 273 272 271 271 272 270 270 270 269 270 269 267 265 262 258 258 259 259 257 255 263 256 256 256 257 258 257 256 255 254 253 254 253 252 253 254 257 259 260 262
265 265 266 268 267 264 267 265 267 267 266 268 266 265 265 263 263 261 260 260 259 260 259 258 258 257 257 256 261 255 255 255 254 253 253 253 252 252 253 255 256 257 257 259
259 260 261 261 261 258 258 259 260 263 262 266 269 269 267 258 259 259 259 260 257 256 256 257 255 255 255 256 255 253 253 253 253 253 251 252 251 251 253 251 252 254 256 257
255 255 255 256 256 255 255 255 256 257 257 257 257 259 259 256 255 254 254 258 256 257 256 255 254 256 255 259 254 253 252 252 251 251 251 250 249 250 251 252 252 253 254 256
252 251 252 253 252 251 251 253 253 253 254 255 256 256 258 257 257 257 256 254 256 257 255 255 257 259 261 255 253 252 252 251 251 251 249 249 249 249 251 252 252 252 254 255
248 250 248 249 249 251 253 251 251 252 252 252 252 252 256 256 255 255 257 257 258 260 257 257 260 262 257 253 251 251 251 253 251 248 249 252 248 249 249 250 252 252 252 254
245 245 246 248 248 248 247 248 250 251 252 251 252 254 254 257 259 257 257 257 260 257 258 260 261 261 257 255 256 255 254 251 250 250 252 251 251 250 250 250 251 252 252 253
246 246 245 244 246 246 247 248 248 248 250 251 251 253 254 254 255 256 258 258 258 258 258 258 258 257 256 255 254 254 256 255 256 255 255 254 253 252 252 251 252 252 252 253
245 248 246 247 249 248 247 248 248 248 249 249 251 253 254 255 256 256 257 256 257 257 257 257 256 256 256 256 256 257 256 255 256 255 254 254 253 252 252 252 252 252 253 254

GFSNGP_sfc_thetae_093.txt.gz
Theta_e
286 287 288 286 285 285 284 286 282 283 283 287 288 288 288 291 291 291 292 292 292 291 291 290 289 289 289 289 288 289 288 287 286 285 285 285 284 284 283 283 282 282 281 281
280 285 286 286 287 287 287 287 285 282 283 289 287 290 290 291 292 292 293 293 292 292 292 290 290 290 289 289 288 287 286 285 285 284 283 283 283 282 282 281 281 281 280 280
278 283 284 280 285 286 287 287 288 281 289 287 288 289 290 291 292 293 293 293 293 293 292 292 292 291 289 288 287 285 284 284 283 283 282 282 282 281 281 280 280 280 280 280
279 281 275 285 288 290 288 289 290 285 287 288 290 291 292 293 293 293 294 294 294 295 294 293 292 290 289 287 285 284 284 283 282 282 282 281 280 280 279 279 279 279 279 279
279 277 281 284 285 285 284 286 289 288 291 288 288 289 289 293 295 295 296 297 297 297 296 293 291 291 287 285 284 284 283 283 282 282 280 278 278 277 279 278 277 276 278 274
278 277 275 283 288 289 289 282 289 290 290 288 289 286 292 293 295 296 297 297 297 296 294 292 291 288 286 285 284 283 283 282 280 280 278 277 278 277 277 276 277 277 276 273
280 273 279 285 287 288 281 283 285 290 291 288 289 293 293 293 294 296 296 296 295 295 293 292 290 288 286 284 283 283 281 279 278 277 276 276 276 275 274 273 273 271 273 273
280 271 275 287 286 284 287 286 287 287 288 290 291 289 289 290 290 292 293 293 294 293 291 290 287 287 285 283 282 280 279 277 275 275 277 275 273 272 271 271 272 273 273 273
285 282 287 285 286 286 288 288 287 289 289 288 288 288 289 289 290 289 290 290 290 291 287 286 286 288 285 283 279 277 276 274 272 274 274 273 272 272 271 272 273 273 273 271
284 281 283 285 286 286 287 286 287 288 287 288 287 288 287 287 287 286 283 284 283 284 284 283 285 286 286 279 279 277 274 273 273 272 271 273 274 273 273 272 272 272 272 271
279 280 282 284 284 286 286 287 287 287 286 286 286 287 286 286 282 283 281 280 282 283 283 281 280 280 279 277 277 275 274 273 273 273 273 272 272 272 273 273 273 271 270 269
280 285 285 286 286 285 285 285 286 286 285 285 285 286 284 282 282 280 279 278 278 277 278 276 276 275 275 276 277 275 273 273 273 272 272 271 271 269 273 274 275 276 276 273
289 288 289 289 288 285 286 285 285 285 286 286 284 284 281 279 278 278 277 277 277 276 275 274 274 273 273 275 276 275 274 273 272 271 271 269 268 269 268 268 271 272 272 273
286 287 287 287 286 284 285 283 281 279 279 279 278 277 276 276 275 275 275 275 275 274 273 273 272 271 272 275 276 275 274 272 271 270 269 267 267 266 265 265 265 265 267 270
283 283 283 283 282 281 280 279 280 278 277 277 275 277 277 275 274 273 272 272 274 274 272 272 271 267 269 272 273 271 270 269 269 267 266 266 265 264 264 263 262 262 261 265
277 276 277 278 277 276 275 276 277 277 276 274 273 273 273 272 271 269 268 271 273 272 271 271 270 266 267 269 268 268 268 267 266 265 264 263 264 263 262 262 261 260 260 261
277 277 275 273 274 274 273 272 273 273 273 272 271 269 268 267 265 264 263 264 268 269 270 271 268 265 265 266 267 266 265 264 264 263 263 262 262 261 262 260 260 260 259 260
272 272 270 269 270 270 271 269 269 268 268 269 267 266 266 266 268 265 262 261 263 263 263 264 264 263 262 263 263 263 263 262 261 261 261 261 260 261 260 260 258 258 258 258
262 263 263 265 262 263 261 262 262 264 266 265 264 266 264 264 264 261 261 262 262 263 262 261 267 262 261 261 261 261 261 260 259 258 259 259 258 258 258 257 257 254 255 257
257 258 258 257 257 255 256 255 258 261 261 262 261 263 263 260 259 259 259 260 259 261 261 262 262 261 261 263 263 261 261 261 260 260 259 258 258 257 256 256 255 254 252 252
253 254 254 254 254 252 252 252 254 257 257 258 260 259 259 256 256 257 257 259 257 256 258 260 260 261 261 263 261 261 260 259 261 260 258 257 255 255 255 254 254 255 256 255
251 251 252 252 252 251 251 250 251 252 254 255 255 255 255 253 252 253 251 256 254 258 257 257 259 261 261 263 260 258 259 260 260 258 256 255 254 255 255 256 256 257 256 255
250 250 251 251 250 249 249 250 250 249 250 250 251 251 251 251 251 254 256 253 252 255 254 254 258 260 262 258 258 258 258 257 256 256 255 256 257 258 258 258 257 256 255 253
247 249 248 249 248 251 251 250 247 247 245 246 247 246 248 251 251 249 251 254 255 255 254 256 261 263 257 254 255 256 257 258 258 258 259 259 258 258 257 257 256 254 253 253
246 245 246 249 250 249 246 248 248 248 248 248 248 248 248 249 250 250 249 251 259 254 254 261 264 264 259 259 259 259 259 259 259 258 258 258 258 257 256 255 254 254 253 253
246 246 244 243 246 247 248 247 248 248 247 250 249 249 249 250 250 250 251 253 253 256 257 259 260 260 259 259 259 259 259 258 258 258 258 257 257 256 256 255 254 254 253 251
245 247 246 247 246 246 245 245 245 248 245 243 245 246 246 248 250 252 254 254 256 256 256 257 259 259 259 258 258 258 258 258 258 258 258 257 257 256 255 253 253 253 252 251

GFSNGP_sfc_thetae_096.txt.gz
Theta_e
284 285 285 284 285 286 284 286 282 286 284 285 288 289 289 288 291 291 292 292 293 292 290 290 290 290 290 290 292 292 292 291 290 288 288 287 285 284 283 283 282 282 281 281
280 283 284 283 285 287 286 286 286 286 284 286 287 290 289 290 291 291 292 293 293 291 291 292 292 290 290 288 288 291 290 288 287 286 284 284 283 283 282 282 281 281 281 280
275 282 284 280 284 286 287 286 288 284 288 287 287 288 290 291 291 292 293 293 292 292 292 293 291 291 289 288 286 285 286 285 284 284 283 283 282 282 281 280 280 280 280 280
276 281 276 283 287 290 288 290 292 290 287 289 289 291 291 292 293 293 293 293 294 294 294 293 291 290 289 287 285 284 284 283 282 283 282 281 280 280 280 279 279 279 279 279
279 273 279 283 284 284 283 286 289 288 289 290 287 288 289 293 294 295 295 296 296 296 295 293 291 290 288 285 284 284 283 283 282 282 281 280 279 279 279 279 277 277 278 275
279 269 270 280 287 288 288 281 290 290 290 290 288 285 290 295 294 295 296 296 296 295 294 292 291 290 287 285 284 284 284 283 282 282 281 280 279 279 278 277 277 277 277 274
280 272 275 283 285 287 279 281 285 289 291 289 288 292 291 291 291 293 294 294 294 295 294 293 291 288 287 286 285 286 283 281 280 279 279 279 278 277 276 276 274 272 274 274
274 269 275 285 284 284 287 286 287 287 288 288 289 289 289 290 290 291 291 292 293 293 293 291 289 288 287 286 286 282 281 280 279 278 278 278 276 274 274 273 273 273 273 273
284 283 287 285 285 286 287 288 288 289 289 289 287 287 287 289 289 289 289 290 290 290 287 286 287 289 287 286 281 281 280 279 277 276 276 276 274 273 273 274 274 273 274 273
283 282 284 285 285 285 287 287 287 288 287 288 288 288 288 288 287 287 284 282 281 283 283 282 284 286 287 281 281 281 279 276 276 275 273 273 275 275 274 274 274 274 274 274
277 280 281 283 284 286 286 287 287 287 286 287 287 287 287 286 284 284 281 280 280 281 280 279 280 279 279 280 281 279 277 275 275 274 274 273 274 274 274 274 275 274 274 273
280 285 285 285 285 285 285 286 287 287 287 286 285 285 285 282 281 280 280 279 278 277 278 276 277 277 277 279 281 278 275 275 274 273 273 273 272 271 276 276 277 278 277 274
286 287 287 286 286 285 286 285 285 285 284 284 283 283 280 279 278 278 276 276 276 276 275 275 275 275 276 279 279 278 276 274 274 273 273 272 272 271 269 271 273 275 275 274
284 286 286 284 283 283 285 283 280 278 278 278 278 276 276 276 276 276 275 275 274 274 273 274 273 271 272 275 277 276 275 275 274 274 273 272 271 272 272 270 268 267 270 271
281 281 282 282 281 280 279 279 279 278 276 276 274 274 274 276 277 276 273 272 272 271 270 270 271 269 271 276 276 275 274 274 273 272 272 271 270 268 268 267 267 266 264 267
277 277 278 277 278 277 276 277 277 276 276 275 275 274 272 270 269 268 268 269 271 270 269 270 271 269 271 274 274 273 273 272 271 270 268 268 267 266 266 265 265 264 264 264
274 274 274 274 274 273 271 271 271 272 272 270 270 269 267 266 265 266 265 264 266 266 266 268 266 266 267 269 271 271 270 269 269 268 267 267 266 265 265 264 264 263 263 264
265 267 267 266 267 268 267 265 265 265 266 266 266 265 265 265 264 266 261 260 262 262 261 260 262 263 263 265 266 267 266 266 266 265 265 264 264 264 264 264 263 263 262 261
259 259 260 261 259 261 260 258 258 260 261 262 263 263 260 260 260 259 257 259 260 261 261 258 268 262 262 264 265 265 265 264 264 263 263 263 262 262 262 262 262 261 261 260
255 256 256 257 256 254 255 254 255 257 258 259 261 263 263 260 256 256 256 257 256 257 256 257 258 259 260 265 266 264 264 264 263 261 261 261 262 261 261 261 260 260 258 256
252 253 254 254 254 252 251 250 251 254 254 255 256 255 253 254 254 253 256 258 257 252 254 257 256 257 258 263 263 263 263 263 263 262 262 262 261 261 260 259 258 257 257 256
251 251 251 251 250 249 249 249 249 250 251 252 252 253 254 254 254 253 250 254 254 256 254 254 254 257 257 261 257 258 259 261 262 262 261 261 260 260 259 258 258 257 256 256
249 249 249 249 249 248 247 247 248 247 249 248 248 249 250 250 249 253 256 253 250 253 251 252 257 259 261 254 254 257 258 259 258 259 260 259 259 259 259 258 258 258 257 258
249 250 249 250 248 250 250 250 247 245 243 244 244 244 246 251 251 247 249 252 253 252 251 252 257 263 255 252 254 256 257 258 258 257 257 258 257 258 259 259 259 258 257 257
246 246 246 248 250 249 248 248 249 249 249 249 248 248 246 247 248 251 248 250 257 252 252 257 263 260 252 253 254 256 259 260 260 260 259 259 259 259 258 258 257 257 257 257
245 246 245 242 245 246 246 246 246 246 247 248 248 247 248 249 250 250 251 253 252 254 253 256 257 256 257 256 257 257 259 259 259 259 259 258 258 258 258 257 257 257 257 257
249 250 248 247 245 245 244 245 245 247 246 242 245 246 246 248 249 251 252 252 252 253 253 254 256 258 256 256 256 257 257 258 259 258 258 258 258 258 258 257 257 257 256 255

GFSNGP_sfc_thetae_102.txt.gz
Theta_e
287 289 289 290 290 290 289 292 288 291 292 296 299 300 302 299 297 297 298 298 299 299 300 301 303 304 305 306 305 306 306 305 306 304 303 301 297 297 294 292 292 289 289 289
284 288 289 287 290 292 292 292 292 293 292 300 299 297 296 296 295 296 298 299 299 300 299 299 301 302 302 303 302 303 304 304 303 297 293 293 291 290 288 288 287 287 287 286
282 286 287 283 287 290 291 293 294 289 295 299 297 297 299 300 298 296 298 299 299 300 300 300 300 301 300 302 301 300 300 294 292 292 291 290 288 286 287 286 286 286 285 286
281 282 278 289 290 294 292 293 295 295 296 298 298 299 301 302 301 300 298 299 300 301 301 301 301 300 300 298 296 296 295 292 290 290 288 286 286 287 284 284 284 283 285 286
281 283 286 288 287 289 288 289 295 294 296 297 298 299 297 300 300 300 302 301 301 303 302 302 300 299 297 293 293 292 292 291 290 289 286 285 284 283 283 283 282 283 284 284
280 281 278 286 289 292 294 285 295 295 295 296 296 289 295 301 298 298 299 299 299 301 300 299 299 298 294 292 292 291 290 289 289 288 287 285 284 283 283 283 283 282 282 284
282 283 284 290 290 292 285 289 292 292 295 295 293 296 295 296 295 295 296 297 298 298 298 298 297 293 292 292 291 291 289 287 287 287 286 286 284 282 283 282 282 282 281 281
283 282 280 290 288 288 293 291 293 292 292 292 293 293 292 293 292 293 292 293 296 297 296 295 293 291 290 290 290 287 286 286 285 286 285 284 283 282 282 281 280 280 279 279
288 288 293 291 293 292 292 293 292 293 292 292 292 291 291 291 291 291 290 290 290 290 291 291 289 290 289 289 287 285 285 285 285 285 284 284 282 281 281 281 280 279 278 278
288 288 290 290 290 291 292 291 291 292 291 292 291 291 290 290 289 288 287 285 286 287 288 287 287 287 288 286 286 285 285 284 283 282 282 282 282 281 281 280 280 278 278 278
287 286 287 288 289 291 290 291 290 290 289 289 291 289 289 287 285 285 284 284 285 285 285 284 285 286 286 285 285 285 285 283 282 283 282 281 281 281 281 282 282 280 280 280
289 289 291 288 290 290 290 288 289 289 287 286 286 286 286 283 283 282 282 282 283 282 282 282 282 283 283 284 285 284 282 281 282 281 281 280 279 278 280 280 281 282 283 282
288 288 288 287 288 289 288 286 285 284 284 283 282 282 282 282 280 280 280 279 278 278 278 279 280 280 280 282 284 283 283 282 280 280 279 278 278 278 277 279 281 281 282 281
282 287 285 284 284 285 285 283 281 280 279 279 279 279 279 278 278 276 275 275 276 277 276 276 276 276 276 279 282 281 281 280 280 279 279 278 278 278 277 276 276 276 280 280
276 282 282 281 280 279 281 281 278 277 277 276 276 275 275 275 273 272 271 271 274 275 273 274 274 274 274 276 279 279 279 279 279 279 279 278 278 277 276 276 276 275 272 276
271 275 275 274 273 273 274 274 275 274 274 274 273 273 273 273 272 270 269 269 272 269 268 269 271 269 271 276 277 278 278 277 278 278 277 277 277 277 276 276 276 274 272 272
275 271 270 269 269 267 265 266 268 268 269 268 268 270 270 271 271 269 267 267 268 266 265 265 265 267 269 272 275 276 276 276 275 277 276 277 276 276 277 277 276 275 274 272
263 264 264 264 265 265 263 262 262 263 263 263 266 267 266 265 265 265 265 267 269 266 262 262 266 265 267 269 271 273 274 273 274 274 273 273 274 274 273 273 272 272 270 270
260 260 260 260 259 260 259 258 258 259 260 261 264 262 262 261 262 263 264 263 262 265 261 261 265 264 266 269 269 272 272 272 272 271 272 271 272 272 272 271 271 270 270 269
257 258 259 258 257 256 256 256 257 257 257 258 260 261 261 259 258 261 262 259 257 257 258 260 261 264 264 264 265 269 270 270 270 270 270 270 270 270 269 267 268 268 268 267
255 256 256 257 256 255 254 254 255 256 256 256 257 256 256 257 257 259 263 264 258 257 257 260 260 262 264 264 266 267 267 268 268 268 268 268 268 268 268 267 267 267 267 266
254 254 255 255 255 255 254 253 253 254 255 254 254 255 257 258 258 257 254 256 258 257 259 260 261 261 261 262 263 264 264 265 266 266 267 267 267 267 267 266 266 266 266 265
254 254 254 254 253 254 255 253 253 253 253 252 252 253 255 256 256 258 261 258 257 259 260 261 260 262 261 262 261 262 262 262 263 263 263 264 264 265 265 265 265 264 264 264
253 253 253 254 254 254 253 253 253 253 251 251 251 250 252 256 258 256 256 256 256 257 259 262 263 262 258 260 260 260 261 261 261 261 262 260 262 262 262 262 262 263 263 262
252 252 252 253 253 252 251 252 253 254 253 254 254 254 252 253 253 256 255 257 257 258 259 259 262 260 260 259 260 260 260 260 261 261 261 261 261 261 262 262 261 262 262 261
251 251 252 251 251 251 251 251 252 253 253 253 254 255 255 255 255 256 257 256 257 257 258 258 258 259 259 259 259 259 259 260 260 260 260 260 260 260 260 260 260 260 261 261
251 252 252 253 253 252 252 252 252 253 253 252 252 255 254 255 255 255 255 256 257 257 257 257 258 258 258 258 258 259 259 259 258 259 259 259 259 259 259 260 260 260 260 260

GFSNGP_sfc_thetae_105.txt.gz
Theta_e
292 294 293 292 292 292 291 293 290 293 293 297 300 301 302 304 304 302 301 301 302 303 304 304 304 305 306 307 308 309 308 309 312 314 312 307 303 301 299 298 298 296 295 292
286 291 293 290 292 293 294 294 294 294 294 300 302 303 300 301 302 301 300 301 302 303 303 303 303 304 305 306 307 307 307 307 308 306 301 299 297 294 292 292 291 292 289 289
283 289 288 284 290 293 293 295 295 291 296 300 299 300 300 301 302 302 301 301 301 302 303 304 304 304 304 305 306 304 303 299 297 294 293 292 291 291 289 288 289 287 288 287
282 285 278 290 294 296 294 296 297 297 298 299 300 302 303 304 303 302 303 303 302 302 303 305 305 304 304 305 303 299 298 295 293 293 291 288 288 288 288 287 286 286 285 286
281 283 288 288 290 291 291 291 298 297 298 300 301 301 300 303 303 303 303 302 301 302 303 303 304 303 302 298 297 296 295 294 292 291 288 287 287 286 285 284 284 285 285 286
284 282 280 289 294 297 297 285 297 298 297 298 298 292 296 297 298 298 299 300 300 301 302 301 302 301 296 295 294 294 294 293 291 290 288 287 286 285 284 285 284 283 284 285
284 285 288 292 291 297 285 290 294 298 298 298 295 298 297 297 297 297 296 296 298 300 299 299 298 294 293 293 292 293 291 289 288 288 287 288 286 284 284 284 282 283 283 284
284 284 281 293 291 289 294 293 293 294 294 294 296 295 295 295 294 294 294 294 294 297 296 295 293 292 291 291 291 288 288 287 286 286 286 286 285 284 284 283 283 282 281 281
289 290 295 294 296 295 295 295 294 295 294 294 294 293 293 293 292 291 290 290 290 290 290 289 288 289 288 289 287 286 285 284 285 286 285 285 284 283 282 283 281 280 280 280
289 290 292 293 292 294 295 294 294 295 294 295 292 293 291 289 288 287 286 285 286 286 286 285 286 286 286 286 285 285 285 285 285 285 285 285 284 283 283 282 281 280 280 279
287 288 290 290 293 293 293 293 291 292 292 293 292 290 289 286 285 285 284 284 284 283 283 282 284 284 284 284 285 284 285 284 284 284 284 283 283 283 282 283 283 281 281 281
290 291 293 292 293 293 292 291 290 288 286 287 289 287 286 284 283 283 282 281 281 280 280 280 281 280 280 282 284 284 284 283 283 283 282 282 281 279 281 282 284 285 284 283
285 289 290 291 292 293 290 288 288 288 287 284 284 285 285 282 281 279 279 279 278 278 277 278 278 276 276 278 281 281 283 283 282 281 281 280 280 279 277 280 282 282 284 283
280 284 285 287 285 287 285 283 281 280 280 281 280 281 280 279 278 276 275 275 276 275 274 274 275 273 274 277 279 280 282 281 282 281 281 280 280 280 280 278 277 278 282 281
272 279 283 282 281 281 282 281 278 278 278 277 276 276 276 275 272 271 270 271 274 271 269 271 270 269 271 274 278 279 280 280 281 281 281 280 280 279 279 278 277 277 276 278
268 274 274 274 273 273 274 275 275 274 274 273 272 272 274 272 270 269 269 269 271 267 266 267 267 267 269 272 277 279 279 277 278 279 279 279 278 277 277 277 277 275 274 276
269 268 266 269 268 267 266 267 268 269 269 268 269 269 270 270 269 267 267 268 265 264 264 264 264 266 267 270 273 276 277 277 273 278 277 278 277 277 278 277 277 277 276 275
263 263 263 264 264 265 263 263 263 264 263 265 266 266 265 265 265 265 265 266 266 264 261 261 263 265 267 268 270 274 274 275 275 275 275 275 276 276 276 276 277 275 272 272
260 260 261 260 260 261 260 260 261 261 261 263 264 263 262 261 263 264 263 262 262 265 261 260 265 265 266 266 268 272 273 273 273 273 273 271 273 273 273 273 273 272 272 270
257 259 260 259 258 257 258 258 260 260 259 260 263 262 261 260 260 262 261 258 258 258 258 260 261 264 264 265 265 270 270 271 271 271 271 271 272 271 271 268 270 270 270 270
256 257 258 258 258 257 256 256 257 257 258 258 259 259 259 259 258 259 264 266 260 259 259 261 262 263 265 263 266 267 267 267 268 268 268 268 268 268 268 268 268 269 269 268
256 256 257 257 258 257 256 256 256 256 256 256 257 257 259 260 260 258 255 257 260 260 261 263 263 261 262 261 264 264 264 265 265 265 266 266 267 267 267 267 266 266 266 266
256 256 256 256 255 256 258 256 256 255 255 254 254 255 256 258 258 259 261 259 259 260 261 263 262 263 262 262 262 262 262 262 262 263 263 263 263 263 264 264 264 265 264 264
255 255 255 256 257 257 256 256 255 256 255 256 255 253 254 256 259 259 259 258 258 258 259 261 261 264 260 261 261 261 261 261 261 262 262 260 262 262 262 262 261 262 263 261
254 255 255 255 256 255 255 255 256 258 257 258 257 257 256 257 255 256 257 257 259 258 259 261 262 261 260 260 260 260 260 261 260 259 260 260 260 260 260 261 260 261 260 260
253 254 254 254 254 254 254 255 255 256 256 256 257 257 257 257 257 257 258 258 258 258 259 259 259 258 259 260 259 259 260 260 260 260 259 259 259 259 259 259 259 259 259 259
254 254 255 255 256 255 254 253 254 255 255 255 254 256 257 257 257 257 257 258 258 258 258 258 259 258 258 258 258 259 259 259 259 259 258 258 259 259 259 259 259 259 259 259

GFSNGP_sfc_thetae_108.txt.gz
Theta_e
289 292 291 290 291 291 291 292 287 289 290 293 293 293 295 297 298 297 297 296 296 297 297 298 298 299 300 301 301 302 302 302 304 308 312 311 309 306 303 301 303 302 300 299
284 291 291 289 292 292 293 293 292 292 290 296 297 296 295 296 298 298 298 299 298 297 297 298 298 298 300 301 301 302 301 301 302 303 301 301 298 296 295 294 294 294 292 292
282 288 288 284 289 291 292 294 294 289 294 295 295 296 295 295 297 297 297 297 297 297 298 297 298 299 298 300 300 299 297 294 294 292 292 293 293 292 291 291 290 290 289 288
281 284 277 286 295 296 293 294 296 296 296 296 297 297 297 298 297 298 299 298 298 297 296 297 299 299 299 299 298 294 292 291 290 290 289 287 288 289 288 288 288 287 287 287
280 280 283 285 287 292 291 291 297 296 298 298 298 295 295 296 295 295 295 296 296 296 297 297 297 297 295 292 291 291 290 290 288 288 285 287 286 286 286 286 285 285 285 285
283 278 276 285 290 294 294 284 295 297 296 297 296 289 290 293 294 294 294 294 294 296 296 295 294 294 290 290 289 289 289 289 288 286 286 287 286 285 283 284 284 284 284 285
282 275 281 286 289 295 281 284 289 296 297 295 292 293 292 293 292 292 292 291 293 294 293 292 290 288 288 288 288 288 287 285 283 283 284 286 285 283 284 284 283 283 284 285
280 273 276 288 288 287 289 286 287 291 290 292 291 291 291 290 289 288 287 287 289 290 288 288 285 287 286 285 285 281 281 280 279 280 282 285 285 284 283 283 283 282 283 282
284 282 289 291 289 289 291 289 290 290 290 291 290 289 289 288 287 285 285 285 285 284 283 283 282 283 283 282 281 279 278 276 277 278 285 285 285 283 282 283 282 281 281 281
282 284 286 287 288 289 291 290 291 291 291 291 289 288 286 285 285 283 282 281 280 280 279 279 280 281 279 280 278 278 277 277 277 277 277 281 283 283 283 282 282 281 280 280
282 282 283 284 286 289 289 289 289 289 289 289 289 287 285 283 282 281 280 280 279 278 278 277 278 277 277 279 279 281 276 276 276 277 277 277 280 282 281 282 283 282 282 282
279 282 285 287 289 289 287 287 285 285 284 284 285 283 282 280 280 279 278 277 276 275 275 274 274 273 273 275 277 276 276 275 275 275 275 275 275 274 283 283 285 286 285 283
275 277 285 287 286 287 285 283 283 282 282 281 280 281 280 278 277 276 274 274 273 272 272 272 270 270 270 272 275 275 275 274 274 275 273 272 272 273 273 278 283 284 285 284
272 275 282 280 279 280 280 279 278 277 277 277 276 275 275 273 272 271 270 270 269 268 268 267 266 266 267 269 271 273 272 273 272 272 271 271 271 271 272 272 272 276 282 282
267 273 276 276 276 276 278 277 275 274 274 273 273 272 271 268 267 266 264 265 266 264 263 263 263 264 265 267 268 268 270 269 269 269 270 271 270 270 270 270 271 273 276 279
265 270 270 269 268 268 269 270 271 271 270 269 269 270 269 267 264 263 264 263 263 261 259 260 261 262 263 265 267 268 268 271 270 268 268 268 268 268 268 269 269 268 270 271
262 264 263 263 265 263 262 263 265 266 266 265 265 264 264 264 262 262 261 260 259 258 256 257 258 261 262 263 264 267 265 266 268 267 267 266 266 267 274 268 269 268 268 270
261 262 262 262 261 261 260 260 260 260 261 262 262 262 262 261 259 257 257 257 257 256 257 256 258 260 259 261 262 264 264 263 264 264 265 266 264 264 264 266 267 265 264 266
259 259 260 260 260 260 259 259 260 259 259 261 263 260 260 261 260 256 255 257 256 256 256 256 264 259 259 262 263 263 264 264 265 263 263 263 263 262 263 262 262 262 262 263
257 258 259 259 258 258 258 259 260 260 259 260 261 260 258 258 256 257 255 254 252 253 254 255 256 257 257 258 262 261 261 261 261 260 259 260 261 261 262 263 264 265 265 266
256 257 257 258 258 258 257 258 258 258 258 258 258 257 257 255 255 257 257 256 255 254 255 257 257 258 256 258 259 257 256 257 258 258 257 256 257 257 258 258 259 260 261 262
256 256 256 257 257 258 258 257 257 258 257 257 257 257 258 258 258 256 253 254 256 257 257 256 257 257 259 260 257 256 256 256 255 254 254 254 255 256 255 257 258 258 258 258
255 255 256 256 256 257 259 257 257 257 256 256 256 255 256 258 258 257 257 256 256 257 257 256 259 262 262 256 254 253 254 253 254 254 254 254 254 254 254 254 254 254 254 255
255 255 256 257 259 257 256 256 256 258 257 258 257 256 255 255 257 258 257 257 257 258 257 258 259 263 259 253 253 253 252 252 253 253 253 256 252 253 253 253 254 254 253 255
255 256 256 255 256 255 255 255 256 257 257 257 258 258 257 257 255 256 256 256 258 258 257 258 262 261 254 253 253 253 252 253 253 251 252 253 254 254 253 253 253 254 252 252
254 254 254 255 254 254 255 255 254 256 256 255 256 257 257 256 257 257 257 257 257 257 257 257 256 255 255 255 254 254 256 255 256 255 255 254 254 254 254 254 254 254 254 254
254 256 254 255 255 254 253 253 253 253 254 253 253 255 255 256 256 256 257 256 256 256 256 256 256 257 256 255 255 255 256 256 257 256 254 254 254 255 255 255 254 254 255 255

GFSNGP_sfc_thetae_111.txt.gz
Theta_e
290 291 292 291 291 291 290 291 286 289 288 291 292 290 292 291 292 296 296 295 294 295 295 295 296 297 297 298 299 299 300 300 300 302 307 308 309 308 307 306 307 306 304 303
287 290 291 289 291 292 292 293 292 292 289 294 296 294 293 295 296 296 297 298 296 296 295 296 296 296 297 298 299 299 299 299 299 299 299 299 299 298 298 298 298 298 297 297
284 288 289 284 289 291 292 294 293 289 293 294 293 295 294 296 297 296 296 296 297 297 296 295 294 296 296 297 298 298 297 294 293 293 295 294 293 294 293 293 292 292 292 291
281 285 279 287 295 295 293 294 296 296 295 297 295 297 297 297 296 296 297 296 295 295 295 296 296 297 297 297 296 294 292 291 290 290 289 289 291 291 290 290 290 289 289 289
281 283 283 284 289 291 290 291 297 296 296 295 296 295 294 295 295 294 294 294 295 295 295 294 294 295 293 291 290 290 290 290 289 289 284 288 287 288 289 288 286 286 285 286
282 280 278 284 289 297 296 286 297 298 297 297 296 291 294 292 292 292 292 292 293 293 292 291 290 291 288 288 288 289 289 289 288 286 283 287 287 285 284 284 285 284 284 285
283 276 279 286 289 298 285 286 291 297 298 297 296 298 292 291 290 290 289 290 291 290 288 288 287 287 286 285 285 285 285 284 282 282 285 286 286 283 284 284 283 284 284 284
279 272 277 287 292 289 290 287 287 290 294 295 290 290 290 288 287 287 286 287 288 286 285 284 284 285 284 283 283 280 279 279 278 282 285 285 286 284 284 284 284 283 283 282
284 282 288 288 288 290 289 288 288 288 289 291 289 287 287 286 285 284 283 283 283 282 281 281 280 281 281 280 280 279 278 276 281 279 285 285 285 284 283 284 283 281 281 281
283 282 283 286 288 290 290 289 288 288 289 289 287 287 285 284 283 281 281 280 279 279 277 276 277 277 278 279 281 281 275 276 275 275 275 278 283 283 284 283 282 281 281 281
279 281 283 286 287 288 288 288 287 286 287 287 287 284 284 281 280 280 279 277 277 276 275 274 274 273 272 275 275 276 275 275 275 274 272 273 276 280 281 281 283 282 282 282
278 276 277 285 283 287 286 285 284 284 283 283 284 282 281 279 278 277 276 275 274 272 272 270 269 269 270 271 273 274 275 275 274 273 272 273 271 272 282 283 285 286 286 283
271 273 276 280 280 281 281 280 281 281 282 281 280 280 278 277 275 273 272 271 270 269 268 266 266 267 266 268 270 271 271 271 270 272 271 270 269 269 270 275 284 285 285 284
269 272 278 275 275 278 278 278 277 275 275 276 275 274 273 271 270 270 268 267 266 265 263 262 262 264 264 266 268 269 268 270 269 268 268 268 268 268 267 267 268 276 282 283
265 271 272 273 271 270 273 275 273 272 272 271 271 270 269 267 265 264 263 263 262 261 260 261 262 263 263 264 268 268 270 269 266 266 266 267 266 266 266 266 266 269 275 277
263 267 267 266 266 264 265 266 268 268 268 268 268 267 266 264 263 261 261 261 261 257 257 259 261 261 261 263 265 267 267 270 267 266 266 266 266 266 266 265 264 264 265 265
261 262 262 262 263 262 260 261 262 263 264 263 264 264 263 262 261 260 259 258 257 255 254 257 257 260 259 261 262 264 262 263 264 264 264 261 261 263 275 270 265 263 263 265
260 261 261 261 262 261 260 260 260 260 261 263 263 263 262 261 258 257 258 257 258 257 257 256 259 258 258 260 261 261 261 260 260 259 259 261 260 260 260 263 267 268 268 264
258 259 259 259 260 260 260 260 260 261 262 263 262 261 262 260 259 256 259 260 258 259 258 257 264 259 258 260 262 260 260 259 259 258 257 259 260 258 258 258 259 259 259 260
257 258 259 258 258 258 258 259 260 260 260 261 262 262 261 259 259 259 259 256 255 255 256 257 257 259 257 258 260 257 256 256 256 255 255 255 255 256 256 258 258 258 260 261
256 257 257 258 258 257 257 258 259 258 259 259 259 260 260 260 259 260 259 258 257 258 259 259 259 259 258 260 258 255 254 254 254 254 252 253 253 253 255 254 254 255 256 256
255 256 256 257 257 258 257 258 258 259 258 258 258 258 259 259 260 259 257 257 258 259 260 259 260 262 261 260 257 255 253 252 252 251 251 251 251 252 252 251 252 254 254 253
255 256 256 256 257 257 258 257 258 258 258 258 257 257 257 258 259 258 259 259 258 258 259 258 259 263 263 258 257 256 255 253 252 252 251 250 251 250 251 252 253 252 252 253
255 256 256 257 258 257 256 256 257 259 258 259 258 257 257 256 258 259 258 258 258 259 259 259 261 264 261 257 257 256 257 254 253 252 252 254 251 251 251 253 254 255 254 255
255 256 256 256 256 255 256 256 257 257 257 257 258 258 258 258 256 257 257 257 258 258 258 259 262 262 258 257 256 256 256 256 255 255 254 254 254 254 254 252 253 254 255 255
254 254 255 255 255 255 255 255 254 255 255 255 256 256 256 257 257 257 257 257 257 257 257 258 257 257 257 257 256 256 256 256 257 256 256 256 255 255 255 255 256 256 255 254
253 255 253 254 254 254 253 253 253 253 253 253 253 255 255 255 255 256 256 256 256 256 256 256 257 257 257 256 256 256 256 256 257 257 257 256 256 255 255 255 255 255 255 255

GFSNGP_sfc_thetae_114.txt.gz
Theta_e
288 289 290 290 291 292 291 291 286 289 289 293 291 289 290 291 292 293 295 295 293 293 294 294 295 295 296 296 297 298 298 297 297 298 301 304 305 307 308 309 311 311 310 309
285 289 290 287 291 292 293 293 293 292 288 296 296 292 289 290 291 293 295 295 295 293 294 295 295 295 295 296 297 298 297 297 297 297 297 299 299 297 297 297 298 298 296 296
282 286 287 283 288 291 291 294 293 289 294 292 293 292 291 291 292 292 296 297 296 296 295 294 295 296 295 295 297 297 295 293 292 292 294 293 293 293 293 293 293 293 293 293
278 285 277 287 293 294 293 294 296 296 295 297 296 298 296 295 294 295 295 295 295 295 295 295 295 295 296 294 294 293 291 291 290 291 290 290 292 291 289 289 290 290 291 290
277 281 284 285 287 291 290 291 296 296 298 296 295 295 295 296 295 296 295 294 294 295 295 293 293 293 292 290 289 290 290 289 289 288 284 287 288 289 290 288 287 287 286 287
281 280 278 287 288 297 296 286 297 298 297 297 295 291 295 292 292 292 292 293 292 292 291 290 289 289 288 287 287 287 287 287 287 285 283 288 287 286 284 285 285 284 285 285
281 282 282 286 289 298 285 287 294 298 298 298 295 299 295 292 290 290 290 290 289 288 287 286 286 286 285 284 283 284 284 283 282 283 286 286 286 284 284 284 284 285 284 284
284 281 279 287 294 290 292 286 288 290 296 298 299 293 291 290 287 287 287 287 286 284 282 282 282 284 282 282 281 279 280 281 283 285 285 285 286 285 285 285 284 284 284 283
287 285 286 291 287 290 288 288 288 289 292 297 292 288 288 286 285 284 284 283 283 281 279 278 280 282 281 281 281 277 278 281 281 283 285 285 285 284 284 284 283 282 282 282
285 283 282 284 287 287 289 288 287 288 289 291 288 287 284 283 282 281 280 279 279 278 276 274 275 276 276 278 280 274 275 275 275 275 274 281 283 283 284 283 282 281 282 281
282 280 282 284 281 282 286 286 286 285 286 286 286 284 283 281 280 279 278 277 276 275 273 271 272 272 271 273 274 275 274 274 274 273 271 272 275 277 281 282 283 283 283 283
274 272 273 280 280 281 281 281 282 283 282 282 284 282 281 279 278 277 275 274 272 271 270 268 268 268 268 268 271 271 274 274 273 273 271 272 271 272 282 284 285 286 286 282
267 270 270 275 278 278 278 277 277 279 281 279 279 279 277 275 274 272 271 270 268 267 266 265 265 266 265 266 269 270 271 271 271 272 271 269 268 268 269 275 282 285 285 285
266 267 275 273 271 273 277 276 275 274 273 274 273 273 272 270 269 268 266 265 265 264 262 262 263 263 263 264 267 267 267 268 267 265 266 266 266 266 264 265 266 274 279 282
261 264 269 271 269 268 270 272 270 270 270 269 269 269 269 266 264 263 261 261 261 261 260 261 261 261 261 262 264 264 266 266 263 264 264 265 265 265 264 264 263 272 275 274
260 265 264 265 265 264 265 265 267 267 267 267 266 265 264 262 261 259 259 259 260 257 257 258 259 259 259 260 262 264 263 267 264 262 264 264 265 265 266 264 263 262 262 263
257 259 259 260 263 262 261 262 263 264 264 264 264 264 263 262 261 259 258 258 257 257 257 258 258 258 258 260 260 261 261 262 262 263 262 260 260 262 264 262 262 261 262 263
258 259 260 260 260 262 262 261 261 262 262 263 264 263 262 261 260 260 260 261 260 259 259 259 261 258 259 261 259 258 259 259 259 257 258 261 258 258 258 259 263 264 264 264
258 258 259 259 258 259 260 260 261 262 263 264 263 261 261 261 261 261 260 260 259 260 258 259 265 260 259 262 260 259 258 258 258 256 255 257 258 256 256 255 256 256 257 260
256 258 258 258 258 258 258 259 260 260 261 263 263 262 261 261 262 261 260 257 257 258 258 258 258 258 258 258 260 257 256 257 258 257 257 256 255 254 255 256 255 254 253 254
255 256 257 258 258 258 258 258 259 259 259 260 260 260 260 260 260 261 261 260 258 259 260 260 259 261 261 261 259 255 255 255 256 254 253 251 252 251 252 250 251 252 253 253
255 255 256 257 258 258 258 258 259 259 259 259 259 260 260 260 260 259 258 258 259 260 261 260 260 261 262 260 257 255 254 253 253 252 251 250 249 250 251 251 251 252 252 251
255 256 256 256 257 257 258 257 258 258 258 258 258 257 258 258 259 260 260 259 259 259 260 259 259 263 264 257 255 254 253 253 253 252 251 250 251 251 252 253 254 254 254 254
255 256 256 257 258 257 256 256 258 258 258 259 258 258 258 258 259 259 259 259 259 259 260 259 261 264 262 259 257 256 256 255 254 255 256 256 255 254 253 254 255 256 254 254
255 256 256 256 256 255 256 256 257 256 257 257 257 258 258 258 257 258 258 258 259 259 258 259 262 262 259 258 258 257 257 257 257 256 256 256 255 255 256 255 254 254 254 255
254 254 255 255 255 255 254 254 254 254 254 253 254 255 255 256 257 257 257 257 257 258 257 258 258 258 257 257 257 257 257 257 257 257 257 256 256 256 256 255 255 256 256 256
252 254 253 254 254 253 252 251 251 251 250 249 251 252 252 254 254 255 255 255 255 256 256 256 256 256 256 256 256 256 256 256 256 256 256 255 255 255 256 255 256 256 256 255

GFSNGP_sfc_thetae_117.txt.gz
Theta_e
287 287 287 289 287 289 288 290 286 289 289 293 294 292 291 290 290 291 293 294 293 292 293 293 293 294 295 295 296 297 297 296 296 296 298 299 301 302 303 306 310 311 312 311
284 288 288 286 289 290 290 290 289 290 290 297 294 293 289 290 290 291 292 294 294 292 292 293 294 294 294 294 295 297 297 297 297 296 295 298 298 297 297 297 298 298 297 297
276 285 284 282 286 288 289 292 293 288 293 295 294 294 294 290 290 291 292 295 295 294 293 293 293 294 294 295 295 296 294 292 291 291 293 293 293 293 292 293 293 293 293 293
271 276 272 283 290 292 289 291 294 295 296 298 298 299 296 298 294 292 291 294 294 294 294 294 294 293 294 292 292 292 290 290 290 290 289 290 291 291 291 291 290 290 289 290
268 265 279 281 285 287 287 288 294 293 295 297 298 293 294 297 295 294 294 294 294 294 293 292 291 291 290 288 288 288 288 288 288 287 286 288 288 290 289 287 286 286 285 285
266 265 268 282 288 293 293 284 295 295 295 296 294 291 297 293 294 293 294 293 292 291 290 289 288 288 287 286 285 285 286 286 286 285 286 287 287 286 285 285 284 285 286 285
276 271 276 284 288 294 283 286 290 297 297 297 295 299 297 293 291 291 291 290 289 287 285 284 285 285 284 284 283 284 284 284 284 285 286 286 285 284 285 285 285 285 285 285
279 276 274 287 289 288 292 287 287 291 298 297 299 299 292 291 288 288 287 286 285 283 282 283 284 284 283 282 282 280 282 283 284 285 285 285 286 285 285 285 285 282 283 284
283 281 285 287 283 285 285 286 288 288 290 294 295 290 288 286 285 284 284 283 283 281 279 279 280 283 281 281 281 278 282 281 282 284 285 285 285 285 284 284 284 282 282 283
283 281 278 280 282 281 282 284 286 287 287 289 288 287 284 283 283 282 281 280 279 279 277 275 276 276 277 278 277 276 276 276 275 276 280 282 283 283 284 283 283 282 282 282
281 278 277 281 277 277 279 282 281 284 283 285 285 283 283 281 280 280 278 278 277 276 274 273 273 272 271 274 275 276 275 274 274 273 272 273 274 278 280 281 283 281 282 282
272 268 267 271 275 275 276 278 278 280 281 281 283 281 280 278 278 277 275 274 273 271 271 269 269 268 268 269 271 272 273 273 273 272 271 271 271 271 282 285 286 286 286 280
262 265 265 267 271 274 273 276 276 277 279 278 277 278 276 274 272 271 270 269 268 267 266 266 266 265 264 266 268 270 270 270 269 270 269 268 267 269 269 272 282 283 284 283
264 263 268 269 268 270 271 274 275 273 272 273 272 272 271 269 268 266 266 265 265 264 263 263 263 262 262 264 267 267 265 266 265 265 265 266 267 264 264 265 267 273 278 280
259 261 264 266 267 266 268 270 271 269 269 268 268 268 267 265 263 263 263 263 262 261 260 261 261 260 260 262 264 263 266 264 262 263 264 265 266 266 265 264 265 272 271 273
258 261 261 262 262 264 263 263 266 267 267 266 265 264 263 262 261 260 260 260 261 257 257 259 260 259 260 260 261 261 261 265 262 261 263 264 264 265 265 264 262 262 262 263
255 256 257 257 259 261 261 262 263 265 265 265 264 263 262 262 261 259 258 258 258 257 258 259 259 260 260 259 259 259 259 260 262 262 262 260 259 260 260 261 261 259 261 265
257 258 259 258 258 259 260 261 262 263 263 264 264 264 263 261 260 260 260 260 260 259 258 259 261 259 260 259 258 258 259 258 259 257 258 260 258 258 258 258 257 258 258 260
257 257 258 259 258 258 259 259 260 261 263 264 263 262 262 261 261 261 261 261 260 260 258 260 265 261 260 264 260 260 260 259 258 258 258 258 258 255 255 254 254 253 254 257
256 257 258 258 259 258 258 259 260 260 261 263 263 262 261 262 262 261 260 258 258 259 260 261 261 261 261 260 261 259 259 259 258 257 257 257 254 252 252 253 252 252 251 251
255 256 257 258 258 258 258 259 259 259 260 260 261 260 260 260 260 262 262 260 259 260 261 261 261 262 262 261 260 258 256 257 256 256 254 253 253 254 255 252 252 251 253 251
255 256 256 257 258 258 258 258 259 259 259 259 259 260 260 260 261 259 259 258 260 260 261 260 260 262 262 260 257 256 256 255 254 253 253 252 251 253 253 254 253 253 253 253
255 256 257 257 257 257 258 257 258 258 258 258 258 258 258 259 259 259 259 260 260 260 261 260 261 263 265 259 257 256 255 255 256 255 254 253 253 253 253 255 254 255 254 254
255 256 256 257 258 257 255 256 257 258 258 258 258 258 258 257 259 260 259 259 259 260 259 259 261 264 262 258 257 257 256 256 256 255 255 256 256 255 255 254 255 255 255 255
255 256 256 256 256 255 255 255 256 256 256 256 257 257 257 258 257 257 258 258 259 258 258 259 262 261 257 256 256 255 256 255 255 253 254 255 255 256 256 256 256 256 257 256
253 253 254 255 255 255 254 254 254 254 254 253 254 255 255 255 255 255 255 256 256 256 256 257 256 256 255 255 255 255 256 256 256 256 256 256 256 256 256 256 256 256 255 255
251 252 252 253 254 253 252 252 251 251 250 249 250 252 252 253 253 254 254 254 254 254 254 254 255 255 254 254 254 255 255 255 256 256 256 255 255 255 255 255 255 255 255 255

GFSNGP_sfc_thetae_123.txt.gz
Theta_e
283 283 284 284 284 286 286 287 281 285 283 287 289 292 293 294 294 296 297 294 294 293 293 293 293 294 294 294 295 296 296 296 296 296 298 300 302 303 303 304 306 307 311 310
280 284 286 282 284 285 286 287 286 287 286 291 290 292 292 293 295 295 296 295 293 292 293 293 293 293 293 293 294 296 296 295 295 295 297 299 298 298 297 298 298 297 296 297
278 282 282 276 282 283 284 287 287 283 288 292 291 293 295 296 297 296 296 297 294 295 294 294 292 292 293 294 294 294 292 290 291 292 292 293 293 292 292 293 293 292 293 293
275 272 268 280 284 286 285 287 289 290 291 292 293 295 296 297 296 297 298 299 299 295 294 294 292 293 292 292 292 291 290 289 289 291 290 291 291 291 290 290 290 290 289 290
269 262 273 278 280 283 283 282 288 288 290 291 292 292 292 296 297 298 299 301 302 301 294 292 292 292 290 288 288 288 288 288 288 289 288 289 289 290 289 289 288 287 287 286
263 261 262 275 281 284 284 278 286 286 286 287 289 286 289 291 293 296 298 299 300 294 291 292 290 289 287 286 287 287 287 287 288 288 288 289 288 287 285 286 285 285 285 285
260 260 270 279 281 288 275 277 280 282 282 281 282 286 285 288 289 292 293 291 289 289 289 288 287 286 286 286 286 286 286 286 286 286 287 287 286 286 286 286 286 285 285 285
263 261 267 280 281 278 277 278 279 278 279 278 279 280 282 285 286 290 289 286 285 284 284 284 284 285 284 284 284 283 284 285 285 286 286 286 286 285 286 286 286 285 285 284
275 275 280 279 279 274 273 273 274 273 276 276 276 278 280 281 285 287 284 283 283 283 282 281 283 285 283 282 282 283 285 285 285 285 285 285 286 285 285 285 285 284 284 283
277 277 276 276 274 271 271 271 271 273 272 274 274 277 279 281 284 284 281 280 280 280 279 277 277 278 278 279 281 284 283 283 283 283 283 284 284 285 285 284 284 283 283 282
274 274 274 272 270 268 269 270 270 270 271 272 274 275 277 280 281 280 278 276 276 276 275 273 274 273 274 277 279 279 279 279 280 281 281 281 281 283 282 283 284 282 281 282
269 262 261 266 266 266 266 267 268 268 269 272 274 273 275 277 276 275 274 274 273 272 271 271 271 270 270 273 276 277 276 277 277 277 277 279 282 283 286 285 285 285 284 281
259 260 261 262 264 266 264 265 266 267 268 271 271 270 271 272 271 270 269 269 268 267 267 268 267 267 267 270 275 276 275 275 275 275 275 275 277 279 278 280 283 283 284 284
261 260 260 261 260 261 264 264 265 266 268 268 268 267 268 267 266 265 265 265 265 265 265 265 265 264 265 269 272 272 272 272 272 272 273 273 272 272 272 273 274 274 276 280
257 258 258 260 261 261 262 262 261 263 264 266 266 264 264 263 262 262 263 264 264 263 262 263 263 262 264 268 269 269 271 270 270 270 270 270 270 269 271 272 271 271 270 275
257 257 259 257 258 259 259 260 260 261 262 264 264 263 263 262 261 261 261 262 261 260 261 262 261 262 263 266 267 267 268 268 268 268 268 268 268 268 268 267 266 267 268 269
254 254 255 255 257 258 258 259 260 260 261 263 263 264 263 263 262 261 261 262 261 261 263 262 262 264 264 265 265 265 266 266 266 266 265 265 265 265 265 265 265 264 263 266
254 256 257 257 257 257 257 259 259 260 260 263 263 263 262 262 261 261 262 263 263 261 261 263 264 263 265 264 264 265 265 264 264 263 264 263 263 263 263 263 263 263 262 262
254 256 257 258 258 258 258 258 259 260 261 262 262 261 261 261 261 260 261 260 259 259 260 262 267 263 262 266 263 264 264 264 264 263 263 263 263 262 262 261 261 261 260 260
253 256 257 258 259 258 257 258 259 260 260 261 262 261 260 260 261 261 260 258 258 259 261 262 262 262 262 262 263 262 262 262 262 262 262 262 261 261 261 261 260 260 259 259
254 256 257 257 258 258 258 258 258 258 259 259 259 259 260 260 260 260 260 259 259 261 262 262 261 262 264 263 262 261 261 261 261 260 260 260 260 260 260 260 259 259 258 257
255 256 256 257 257 258 258 258 258 258 258 258 258 258 259 259 260 260 259 258 259 261 261 261 261 263 264 263 262 261 261 260 260 260 260 260 259 259 258 258 258 258 257 257
256 256 257 257 257 257 258 257 257 257 257 257 257 257 257 258 258 257 257 259 259 260 260 260 262 263 263 261 260 260 259 259 259 259 259 258 258 257 257 257 257 257 256 255
255 256 256 257 258 257 256 256 257 257 257 258 258 257 257 256 258 259 258 258 258 259 259 260 261 263 260 259 258 258 258 258 258 257 257 257 257 256 255 255 255 256 255 254
252 254 255 255 256 255 255 255 256 256 256 256 256 257 257 257 256 256 257 257 258 257 257 258 260 259 257 257 257 256 256 256 256 256 256 255 255 254 255 255 253 254 255 255
248 249 250 251 253 253 253 254 253 254 254 253 255 255 255 255 256 255 256 256 256 256 256 256 256 256 256 255 255 255 255 255 255 255 255 255 254 253 253 254 254 254 254 254
245 249 247 249 250 250 249 250 250 252 252 251 251 253 253 254 254 254 254 254 254 254 254 254 254 254 254 254 254 254 254 254 254 254 253 253 253 253 253 253 253 253 254 254